GFSSGP_700_rhum_000.txt.gz
RH
0 1 8 16 18 22 30 37 48 62 62 35 29 55 48 24 42 66 34 28 26 33 47 50 48 51 56 59 46 37 21 21 25 21 22 20 21 22 31 53 49 56 72 77 70 46 36 41 47
2 10 15 18 16 18 28 38 46 61 35 31 26 27 32 26 32 26 29 26 27 30 31 33 30 27 27 24 18 18 24 24 23 22 24 17 18 19 24 24 25 32 39 29 19 15 16 20 24
17 18 19 18 16 21 27 37 62 38 38 34 27 24 15 29 29 27 28 26 24 18 15 13 12 12 12 16 19 18 22 22 21 19 16 17 16 16 18 20 24 24 21 20 20 21 22 23 28
20 18 18 18 21 36 36 50 55 42 40 36 45 28 22 24 33 30 26 22 17 14 13 12 13 16 19 24 22 21 24 24 28 31 30 29 27 26 21 20 20 19 19 22 25 23 22 22 22
20 22 23 22 28 35 43 52 61 53 58 33 30 24 21 26 27 24 23 19 16 16 17 20 22 25 29 29 30 31 29 25 21 20 22 23 26 10 10 14 22 24 22 14 13 17 24 31 34
20 26 21 24 33 45 49 41 47 39 35 23 34 24 20 28 28 27 22 19 16 17 25 27 26 30 32 32 30 23 14 13 11 12 16 21 7 9 12 18 22 12 9 7 7 14 21 15 20
19 20 19 22 29 33 33 18 40 38 43 42 14 42 22 25 24 23 22 20 20 25 24 29 35 39 37 24 15 10 8 5 3 6 15 6 7 8 9 8 9 10 11 12 11 11 12 9 5
15 16 17 19 18 17 17 16 15 29 33 16 15 42 19 25 30 25 27 29 28 27 35 43 43 28 9 7 5 4 5 5 6 10 10 11 12 16 19 20 20 22 22 22 22 18 13 12 14
12 13 12 14 13 15 14 17 13 13 20 15 17 47 29 15 13 22 35 37 39 30 46 50 25 15 23 21 17 10 4 3 6 12 15 16 18 20 22 22 23 24 25 26 27 28 28 25 24
14 12 14 12 14 14 14 15 15 17 19 19 15 8 8 4 3 9 28 41 28 35 47 34 18 28 32 32 32 30 28 24 18 15 18 22 23 23 24 25 26 27 28 28 29 30 31 30 30
14 14 12 13 13 15 15 14 11 17 18 19 26 18 19 13 6 5 17 24 29 52 31 25 32 37 36 36 36 35 35 35 34 35 35 35 34 33 32 31 31 31 31 32 32 33 35 37 39
12 11 12 12 7 12 18 16 17 18 16 19 23 23 24 25 22 7 8 58 52 33 22 32 37 41 41 39 40 42 40 38 39 40 42 40 38 39 41 43 44 44 44 44 43 43 43 42 42
17 16 16 18 21 17 16 16 19 14 18 20 20 21 23 25 27 24 13 66 84 27 35 38 42 45 44 42 45 45 46 47 44 46 49 43 39 37 36 36 40 47 49 50 50 49 47 45 44
18 20 22 23 22 17 18 20 20 22 23 21 20 21 21 22 26 27 22 36 64 56 50 47 47 47 47 43 45 46 49 49 51 52 52 44 45 42 36 40 38 40 45 50 52 54 54 54 51
19 22 23 22 24 22 19 22 22 22 25 26 22 22 22 21 23 27 25 31 60 67 44 46 48 46 48 45 46 45 51 53 55 56 55 46 43 47 44 42 40 38 39 41 43 45 45 46 48
23 22 20 23 25 24 24 21 26 21 24 25 26 22 24 23 22 25 29 35 40 39 41 43 40 43 51 48 48 48 49 56 57 61 58 55 54 50 53 52 45 45 42 39 41 40 39 38 38
19 15 18 26 24 23 24 25 31 22 20 23 24 26 25 26 25 26 28 29 30 32 34 38 43 50 54 51 49 48 53 56 61 62 51 52 57 66 67 55 48 51 48 44 41 40 40 39 38
18 18 20 22 22 17 30 31 21 19 18 26 25 23 27 29 26 26 28 31 33 35 39 42 45 48 52 52 51 55 56 53 63 62 56 60 68 66 63 52 44 42 44 46 47 46 48 48 45
14 22 25 26 15 20 35 31 27 22 24 25 26 23 22 30 28 29 29 31 34 40 42 55 49 46 52 52 57 59 58 60 58 60 66 75 74 73 64 56 54 54 54 52 48 50 52 50 56
24 28 27 29 22 30 38 33 28 28 28 26 26 24 24 28 29 32 33 34 34 34 35 44 47 48 49 59 60 62 66 70 72 76 78 80 80 80 69 55 54 49 38 30 26 25 26 30 38
31 32 40 38 34 32 37 35 35 26 26 28 26 24 26 30 32 34 36 38 39 45 52 56 55 55 60 61 65 68 71 76 81 81 80 82 79 65 60 47 36 30 27 26 24 23 19 15 20
36 32 31 30 40 28 32 24 41 34 34 32 33 32 34 37 40 43 45 52 54 57 59 60 60 62 64 66 68 73 75 77 79 81 85 88 66 58 43 36 33 29 23 18 16 14 15 14 10
50 35 30 32 42 42 39 28 42 42 43 47 40 40 43 46 47 54 56 58 59 62 64 63 62 64 66 71 74 78 80 85 93 90 75 67 60 50 46 36 26 19 14 12 11 11 11 12 13
38 31 39 48 52 42 48 39 41 47 52 53 44 46 47 50 52 58 60 60 62 65 65 64 65 71 81 82 90 92 95 96 74 54 52 52 55 55 46 38 25 16 13 12 13 14 14 14 18
51 45 37 48 45 40 45 40 53 58 51 50 47 49 52 57 63 59 60 63 65 66 64 68 90 95 94 97 96 97 85 66 71 64 62 56 58 49 40 28 13 10 12 15 17 24 42 40 40
44 55 52 49 46 39 47 36 49 56 56 55 56 58 59 60 60 65 68 72 76 82 92 91 97 98 96 84 61 61 60 60 66 64 65 55 45 37 26 13 10 11 20 35 79 80 84 98 95
57 59 46 57 58 68 43 52 52 57 67 60 63 62 59 60 66 70 72 73 74 76 78 86 80 66 56 56 56 55 51 51 61 63 57 52 36 17 13 13 25 41 56 76 88 94 95 97 97
56 52 56 53 69 42 27 34 36 65 66 70 67 69 67 65 70 77 79 83 94 89 73 70 66 64 63 62 57 63 71 77 73 65 36 19 14 15 24 39 64 79 93 95 84 82 96 95 93
67 67 59 55 62 49 51 33 58 60 65 65 74 80 78 69 81 87 81 88 74 67 69 65 63 66 81 75 78 94 92 43 19 20 20 15 25 37 57 75 81 95 90 96 97 97 96 94 92
64 71 66 52 54 69 72 54 54 60 65 73 80 86 76 76 96 99 85 83 75 71 70 70 89 100 94 97 91 42 40 36 26 16 15 34 47 60 76 93 91 99 100 96 95 96 96 97 96

GFSSGP_700_rhum_003.txt.gz
RH
0 1 8 14 18 16 24 32 37 43 49 63 55 53 56 54 70 70 39 31 31 37 56 67 59 52 49 52 51 44 38 23 30 33 27 25 33 44 44 49 46 66 60 64 67 62 43 26 20
0 5 12 21 17 15 23 29 34 42 50 48 44 41 48 54 17 30 36 29 29 42 55 46 47 46 49 47 37 24 27 29 28 29 29 27 24 23 18 21 23 25 28 33 31 24 22 23 28
2 12 20 14 14 14 24 27 43 48 49 48 45 52 56 72 80 82 31 27 29 29 30 28 24 25 23 17 22 28 27 24 22 22 27 25 24 24 22 21 19 18 21 25 23 22 22 22 24
14 16 18 15 17 22 24 37 43 46 54 52 42 55 58 76 80 31 27 24 18 14 14 12 11 12 14 19 22 21 21 25 30 33 29 30 27 24 23 11 13 16 19 19 19 19 16 17 22
17 18 16 16 23 28 35 38 40 42 44 46 44 47 69 62 34 28 23 18 15 14 13 13 14 19 26 28 26 27 28 28 18 15 12 14 17 8 8 12 16 21 20 13 10 10 14 22 26
18 20 17 20 25 34 39 44 42 35 40 44 44 50 74 25 21 22 21 19 16 15 18 23 26 29 28 28 30 26 18 11 4 2 6 15 7 6 7 8 10 11 10 10 8 8 10 11 10
19 20 18 23 29 33 39 38 32 29 35 36 40 46 71 28 24 25 22 20 16 18 25 25 21 27 32 25 15 12 10 4 3 5 9 10 8 9 10 13 13 11 12 13 16 17 15 12 12
18 17 18 20 23 24 24 26 30 30 33 39 36 39 59 64 25 21 21 23 20 22 22 24 34 24 7 5 3 2 3 4 4 8 14 15 16 17 19 20 20 20 21 22 23 24 26 27 27
14 14 14 14 14 14 15 15 17 22 34 35 36 49 52 20 25 26 25 27 26 29 28 47 31 15 22 23 23 20 16 9 7 11 17 20 20 22 22 22 22 22 23 24 25 26 27 28 29
13 11 12 12 12 12 13 13 14 21 28 24 35 45 73 11 11 17 26 35 37 33 38 52 21 21 26 27 30 30 30 30 28 28 29 29 32 32 32 32 32 32 31 31 31 31 32 33 36
13 13 13 13 12 10 10 11 12 14 16 19 28 39 68 7 4 18 81 80 88 90 81 34 20 28 33 36 37 37 35 35 36 36 40 41 39 38 38 40 40 41 39 44 46 43 41 41 41
15 14 14 13 12 14 12 13 15 13 12 18 23 41 61 30 33 81 85 79 86 91 89 35 32 33 38 41 43 44 45 45 41 43 47 47 44 40 39 40 39 40 42 40 43 49 48 47 46
15 15 15 14 14 18 18 18 21 16 17 17 29 47 62 77 82 80 83 78 80 82 89 96 42 37 41 43 48 45 48 48 48 48 49 51 49 42 40 40 38 38 39 39 38 38 40 41 43
18 20 22 23 24 19 23 22 24 23 21 21 26 37 53 62 67 71 77 76 77 82 93 92 98 42 44 45 44 45 43 46 51 54 54 55 49 48 45 43 48 45 41 40 40 39 37 36 36
20 21 23 25 26 25 23 22 21 24 24 23 23 27 40 52 56 62 73 75 78 82 90 100 100 52 45 46 47 47 47 48 52 57 57 55 43 44 40 45 44 45 44 43 40 38 36 35 35
20 20 19 24 25 27 25 21 21 25 26 24 27 25 30 43 50 54 65 74 79 79 91 94 99 60 44 46 50 50 49 49 54 53 49 48 44 45 47 43 42 47 50 51 46 40 39 42 42
18 16 15 25 24 26 23 20 26 30 27 26 24 26 28 33 48 56 60 64 73 79 85 89 94 70 43 45 52 50 51 53 58 56 55 55 56 57 60 57 53 52 54 53 46 41 41 47 45
15 13 14 14 25 20 20 20 25 29 18 26 25 26 27 29 44 60 78 73 76 81 81 83 96 76 45 55 49 54 52 59 61 64 62 60 64 62 66 68 66 62 59 60 52 42 36 33 32
18 17 17 19 27 22 27 21 28 31 30 32 29 30 30 31 46 71 57 35 33 36 46 84 95 61 50 54 54 55 56 62 76 72 77 73 72 75 77 82 83 70 64 51 44 37 33 29 27
24 22 21 25 26 21 27 24 30 33 37 35 34 36 42 46 60 56 33 32 37 43 78 77 70 51 53 59 53 55 62 72 70 80 77 80 80 86 90 86 82 66 54 44 38 33 26 20 17
29 27 34 32 30 27 27 26 29 34 37 39 41 44 44 51 59 45 39 36 36 36 39 44 49 51 54 58 58 62 64 68 76 84 83 87 89 86 64 62 65 59 53 48 36 30 24 20 16
31 39 40 35 31 24 27 20 31 31 37 42 48 51 50 52 56 48 40 43 49 50 53 54 54 55 56 56 62 64 71 83 84 91 86 87 95 49 45 46 50 54 54 51 34 23 19 17 18
42 27 41 39 32 28 26 21 37 32 35 43 53 58 57 41 44 45 52 56 57 56 56 58 59 56 55 56 60 66 69 80 94 94 79 45 54 52 57 55 54 55 44 36 35 21 19 18 15
39 46 43 42 35 32 32 28 31 35 42 49 60 68 68 60 49 52 56 58 57 57 58 60 58 59 61 72 84 95 86 67 54 52 48 49 51 54 57 53 50 49 41 30 17 20 17 15 15
40 37 36 40 37 36 38 29 40 48 50 53 64 69 76 52 56 60 61 69 62 64 65 64 64 67 89 95 77 60 51 54 57 57 58 60 61 60 58 57 55 43 25 22 31 45 64 79 77
44 44 47 41 38 31 35 25 40 52 57 61 66 70 73 65 58 59 66 72 91 76 80 81 86 89 72 54 54 60 66 70 68 73 78 75 67 54 36 23 22 20 17 24 44 64 73 91 98
46 46 44 54 56 57 28 32 47 55 59 62 67 74 79 85 90 92 93 96 66 66 71 72 72 60 66 67 67 69 72 75 78 77 79 64 43 31 27 23 17 22 52 64 65 83 94 94 93
53 48 50 43 58 36 21 21 36 56 52 60 58 66 74 83 88 89 89 96 100 96 77 76 68 69 82 87 87 85 94 96 96 70 56 45 33 14 11 25 76 98 86 92 95 99 100 98 96
52 52 52 39 46 44 40 31 48 48 56 60 64 66 68 74 81 85 94 84 93 100 100 91 96 87 92 98 99 100 97 80 76 60 39 17 11 20 35 51 53 80 84 89 95 90 95 97 97
58 54 48 47 42 50 58 51 53 54 56 66 69 70 78 81 86 92 97 98 96 100 100 98 83 90 87 98 98 96 92 59 38 16 11 12 27 43 56 55 67 98 100 99 98 96 95 92 93

GFSSGP_700_rhum_006.txt.gz
RH
4 1 6 12 18 16 16 25 35 44 47 50 47 49 56 65 68 78 88 52 30 42 59 62 50 45 40 41 42 42 42 22 29 29 31 28 33 32 28 28 24 27 27 37 41 40 36 24 18
3 3 9 15 25 20 18 32 32 44 46 37 40 40 54 58 30 32 53 40 28 26 56 65 57 50 45 48 47 36 24 33 30 30 28 28 27 22 20 20 20 18 18 18 22 23 20 19 18
1 4 15 23 18 17 24 29 46 44 36 39 44 56 61 77 80 44 36 40 23 24 42 47 47 44 42 31 19 23 32 28 24 22 24 25 24 23 23 20 12 11 12 13 15 14 14 13 13
8 10 13 18 15 21 26 40 42 40 45 42 40 51 57 77 63 38 28 27 36 28 32 26 19 17 15 15 19 24 24 21 23 22 12 12 12 15 8 6 8 12 17 18 15 10 8 10 14
8 12 18 18 23 27 34 37 35 38 41 40 41 70 80 84 57 28 26 23 20 18 15 12 12 12 15 20 23 23 23 22 12 5 4 7 14 6 6 7 8 9 10 9 9 8 6 7 8
18 20 20 18 25 29 33 33 38 40 47 41 42 62 92 52 37 27 21 19 19 17 15 15 18 20 18 19 26 23 12 9 4 3 5 9 9 8 12 14 17 16 15 14 15 18 18 17 13
22 21 22 23 26 31 37 39 31 30 33 33 40 64 77 88 24 22 21 20 18 16 18 21 20 15 21 20 9 7 7 6 4 4 8 12 14 16 17 18 19 19 19 20 20 21 22 23 24
20 19 20 27 26 28 31 29 28 27 35 35 35 48 61 34 22 25 23 22 24 23 23 20 17 21 6 5 5 5 3 3 4 8 12 16 18 19 22 23 24 24 24 24 25 26 27 27 28
17 16 19 18 20 20 20 16 21 23 34 33 44 42 52 19 25 23 19 22 26 24 25 22 26 12 13 18 21 24 24 25 26 26 24 29 32 32 31 34 36 36 37 37 37 37 36 35 34
15 13 13 12 12 13 13 13 13 17 28 28 38 62 63 37 17 21 26 27 28 30 34 44 29 18 24 28 32 32 32 33 33 34 36 40 42 40 38 36 35 33 34 31 33 33 34 35 38
14 14 12 11 11 11 11 12 11 17 19 20 34 46 51 7 8 7 12 58 77 72 84 82 27 25 32 37 40 38 39 41 39 40 44 46 45 43 41 39 36 34 32 30 30 32 32 33 36
14 13 12 11 10 10 9 10 11 12 13 16 26 36 68 36 16 42 80 80 71 94 95 71 24 30 37 40 40 42 43 45 47 48 48 48 50 48 40 39 39 36 39 37 33 33 32 32 32
15 13 13 13 11 15 16 15 18 14 15 18 26 40 63 78 83 84 81 83 70 95 70 84 62 33 36 40 41 42 42 42 42 43 44 48 55 44 36 33 31 31 34 35 35 36 35 33 30
14 14 14 16 20 16 16 18 17 20 16 16 27 42 56 71 76 77 77 74 84 85 88 93 71 41 34 35 39 41 43 45 45 47 48 52 51 40 38 39 37 34 36 42 43 39 36 33 32
17 18 19 21 24 23 17 22 19 22 21 20 21 29 42 52 61 66 69 74 76 73 80 96 71 70 52 36 39 45 42 46 49 48 50 53 50 47 44 45 49 48 47 49 49 44 41 37 35
18 18 19 21 22 24 22 22 20 22 22 23 23 23 27 41 51 55 64 73 73 83 88 91 99 68 52 34 41 47 45 49 52 52 58 58 60 61 57 56 55 57 58 60 55 48 44 40 38
19 17 19 24 22 24 22 24 21 24 26 26 24 25 26 28 42 49 56 65 70 65 85 97 95 73 85 44 50 48 50 53 54 59 70 69 78 71 65 69 68 70 71 70 56 58 55 46 42
20 15 14 13 22 18 17 19 23 26 27 26 25 23 25 27 32 47 56 61 69 74 78 85 89 76 77 89 47 71 67 58 62 58 80 76 78 73 78 79 80 83 83 62 66 67 66 47 41
18 15 14 20 23 20 18 22 24 28 28 30 29 29 29 29 30 49 66 71 74 79 80 73 73 79 78 80 53 50 55 67 63 62 71 81 82 80 85 85 86 77 57 65 70 67 56 50 46
20 19 19 21 24 20 24 20 27 31 34 33 33 36 36 45 54 61 64 71 61 58 52 63 69 67 61 64 57 58 63 64 64 70 71 80 89 96 91 90 78 64 46 46 53 55 54 52 47
25 23 34 31 30 26 24 24 28 33 37 39 40 42 48 53 53 61 66 62 43 44 45 47 45 47 51 55 63 62 64 63 66 73 94 94 93 90 54 69 59 53 48 50 52 54 56 53 46
29 39 33 32 28 24 23 21 29 33 38 45 50 48 52 55 60 69 58 40 39 43 52 54 55 56 59 58 66 66 65 70 83 88 58 58 55 54 52 56 56 57 55 54 52 50 50 46 44
39 31 25 35 32 27 24 26 31 32 36 46 55 58 59 64 68 71 58 50 50 53 56 58 59 59 59 59 59 63 73 82 73 60 57 53 51 62 73 71 68 65 61 53 44 38 33 28 25
33 42 37 37 35 36 26 29 40 36 42 49 60 67 70 70 67 58 58 58 53 56 62 66 62 63 64 70 78 80 71 56 57 62 62 59 73 79 76 76 73 52 42 33 28 28 28 25 16
38 38 37 52 47 49 35 29 45 46 47 52 61 68 78 81 82 84 89 95 75 66 64 63 67 76 83 82 74 63 66 72 79 75 76 87 85 87 87 69 54 43 33 16 10 13 46 33 45
42 40 49 53 61 43 30 24 46 52 53 52 60 68 75 85 84 89 77 71 77 68 57 58 47 56 68 75 72 78 80 81 82 90 96 92 95 84 62 53 26 10 8 12 15 28 58 81 92
48 47 35 44 55 50 27 42 51 54 57 59 62 68 72 77 84 75 96 98 100 100 92 74 77 70 81 80 78 79 78 82 99 98 96 91 62 32 21 8 8 11 14 28 38 80 99 100 96
42 37 41 44 62 44 27 32 57 54 61 60 56 60 64 76 95 98 100 90 90 88 79 83 90 86 91 94 95 99 99 98 89 83 60 40 21 8 7 7 8 19 38 55 62 76 91 92 91
47 46 47 38 44 49 51 36 42 48 53 57 61 64 68 70 81 96 98 96 95 88 78 90 90 99 97 94 100 98 84 80 60 55 33 12 8 8 9 14 36 53 60 80 96 100 100 100 100
44 47 44 49 45 48 54 46 52 55 62 68 69 81 81 80 74 69 73 77 79 90 90 92 89 82 77 92 95 71 61 51 32 19 14 10 9 10 19 42 58 58 58 42 82 58 55 67 69

GFSSGP_700_rhum_009.txt.gz
RH
5 1 3 11 12 19 16 26 43 50 48 44 43 44 52 59 62 72 83 96 88 54 62 64 53 42 38 36 40 42 40 30 29 28 29 28 28 27 25 21 19 16 13 12 14 15 18 22 20
2 2 7 13 15 25 34 46 44 46 44 42 47 52 46 52 30 52 74 71 48 48 62 62 52 43 42 43 46 44 30 28 31 28 24 23 22 20 22 18 12 7 8 10 10 11 10 10 10
1 4 11 21 17 21 21 41 44 37 40 35 41 53 52 46 69 44 72 27 32 42 56 64 64 53 47 42 30 21 24 32 26 21 21 12 8 13 10 6 6 6 7 8 9 6 5 6 8
4 9 14 25 20 36 38 45 44 38 42 40 37 48 66 69 59 57 50 32 25 38 50 51 48 32 21 18 17 20 23 22 20 18 3 3 8 9 5 7 11 14 13 11 9 8 8 8 5
9 10 18 19 24 42 36 35 39 41 40 42 49 66 65 67 44 43 26 25 25 26 26 20 15 13 12 14 20 21 19 18 12 3 3 7 9 8 12 15 16 17 17 18 18 18 18 19 20
11 18 25 22 30 35 33 36 38 44 42 44 48 54 69 37 35 29 26 21 21 19 17 15 15 18 17 12 12 17 12 8 5 4 6 10 13 15 17 18 20 21 22 22 22 22 22 22 23
16 23 26 29 36 35 36 37 28 40 32 46 53 53 62 29 29 25 23 20 19 18 17 20 21 17 12 15 10 6 4 4 3 4 10 16 20 24 25 28 29 31 32 32 33 32 33 32 31
24 22 21 34 31 37 37 27 27 32 37 39 43 57 60 46 24 23 23 22 22 25 26 24 21 17 8 4 4 5 8 13 19 23 25 29 31 32 34 34 33 32 30 29 32 29 29 32 33
22 21 17 32 30 30 30 26 28 26 35 34 34 43 44 26 23 26 25 20 22 23 23 24 20 13 7 11 14 17 25 30 31 31 32 33 33 32 35 34 32 30 28 27 26 27 26 28 29
17 16 14 16 20 20 14 14 14 18 27 31 32 43 49 40 23 24 21 21 24 24 18 17 20 18 10 16 21 30 33 34 35 37 38 39 42 44 43 38 33 30 27 25 24 25 25 25 26
15 14 12 11 12 12 12 13 12 22 18 18 18 41 51 39 22 14 16 17 15 28 21 23 34 13 16 24 34 35 36 38 42 45 47 48 49 52 47 37 34 32 30 27 25 24 23 22 24
14 13 12 10 9 10 10 11 13 15 15 20 18 24 22 23 6 7 18 42 65 56 75 66 52 18 27 32 35 35 39 40 42 43 43 44 46 50 49 40 38 37 35 31 32 34 34 33 30
14 13 13 10 8 10 10 12 15 15 16 20 24 32 36 38 34 42 54 84 82 75 75 72 68 69 32 37 38 42 40 43 44 44 45 45 46 48 53 48 47 44 44 42 43 45 42 37 34
14 14 12 7 4 9 13 15 18 15 15 16 32 40 42 49 50 64 66 74 84 82 95 82 96 88 52 38 39 41 44 46 45 46 47 47 49 52 54 56 56 52 49 47 47 48 48 42 39
14 17 19 19 21 21 18 22 20 19 16 20 20 29 42 49 55 67 71 65 64 83 82 84 83 78 66 54 49 41 44 46 49 48 50 49 53 56 59 70 64 60 59 59 63 64 59 43 45
16 18 19 20 23 24 20 21 22 22 22 20 22 22 28 36 50 54 61 62 63 68 81 88 90 77 66 69 71 51 43 50 51 56 55 62 61 59 60 69 67 66 66 68 71 71 61 47 39
18 18 20 21 22 25 22 22 21 22 24 25 24 24 24 27 43 53 51 55 56 74 77 81 84 77 67 72 74 63 58 57 55 56 68 76 71 71 76 79 71 71 75 73 71 69 48 41 40
20 16 20 24 22 22 20 20 24 26 26 27 26 24 26 26 40 52 60 64 66 71 77 86 79 67 65 92 77 66 62 56 58 62 63 65 64 62 69 84 90 88 87 77 54 62 52 49 53
18 18 21 23 22 20 17 25 26 28 29 29 29 30 29 29 32 52 57 59 66 75 76 71 67 72 82 76 72 59 63 77 66 70 76 79 74 80 77 56 62 58 46 41 43 46 47 45 47
19 21 26 26 28 16 22 26 25 28 30 30 30 31 32 31 33 50 56 62 65 68 70 67 64 59 68 68 62 65 72 79 81 85 71 73 85 97 69 54 50 50 49 50 49 46 44 44 46
25 22 28 29 29 15 23 29 30 32 35 35 36 37 44 44 47 52 51 55 69 75 67 50 56 52 55 58 64 68 82 84 74 73 84 82 83 55 60 60 62 63 65 64 64 64 58 50 45
34 32 30 27 24 26 24 33 33 36 35 38 44 49 50 46 43 43 50 43 46 44 48 55 56 61 64 62 68 63 66 70 72 77 77 66 65 69 67 66 67 74 81 84 74 62 49 41 35
39 28 20 18 30 30 26 28 36 39 46 46 43 46 44 48 48 43 44 53 48 50 55 58 59 60 55 60 64 70 72 68 66 68 64 72 77 82 84 93 96 97 89 73 58 42 24 14 8
38 38 37 37 38 42 35 34 39 49 48 51 52 51 53 52 63 66 63 55 51 55 60 58 56 57 55 60 60 53 51 57 66 72 78 82 85 98 100 98 94 83 50 22 11 7 6 8 12
34 39 46 53 64 63 40 42 53 51 52 53 61 68 66 69 60 61 73 86 76 66 58 51 44 41 46 50 56 68 78 85 96 100 100 100 100 100 90 63 35 15 8 6 7 8 15 19 25
42 43 43 64 81 54 23 49 59 51 59 63 65 57 61 64 66 73 75 82 100 100 89 59 56 59 53 63 68 64 72 85 100 78 100 96 91 73 41 19 10 9 7 7 8 12 31 46 71
48 26 36 46 48 54 46 55 54 54 57 59 60 68 70 73 71 78 73 93 87 97 99 86 73 75 89 92 86 90 96 100 98 100 96 83 58 28 18 13 10 10 11 14 19 36 51 61 71
40 34 46 41 63 52 39 55 57 57 60 58 62 63 66 78 90 80 72 84 83 82 83 80 73 73 84 73 67 91 100 99 93 95 69 40 26 21 18 18 16 16 21 42 52 70 77 82 98
49 48 42 38 42 62 80 51 54 62 60 60 62 66 69 73 82 81 83 74 78 92 88 66 68 64 48 46 60 58 62 48 68 57 54 41 34 34 23 15 18 26 48 52 32 20 17 24 38
34 48 45 40 54 51 53 44 53 53 61 68 75 77 77 80 76 74 72 76 84 78 75 73 58 34 20 18 18 26 34 87 78 75 56 45 54 29 21 18 36 56 58 45 37 26 39 32 34

GFSSGP_700_rhum_012.txt.gz
RH
16 4 4 8 16 18 17 39 49 50 48 46 49 56 55 60 63 62 54 61 60 69 67 62 57 43 40 38 38 40 40 34 26 28 27 24 21 16 10 14 12 5 5 8 10 11 12 11 12
13 12 8 18 23 22 45 47 55 58 58 59 45 49 47 43 35 47 48 50 43 62 67 64 60 45 39 40 40 39 34 23 29 26 21 18 9 4 5 4 4 5 9 6 7 6 6 6 9
14 4 12 26 20 21 39 42 50 51 50 51 42 47 37 46 46 30 49 60 43 48 64 65 58 47 46 45 34 25 20 25 24 21 18 6 2 4 3 4 7 13 14 14 14 13 15 15 10
10 10 19 20 25 31 32 41 46 47 53 45 43 35 48 61 56 32 45 37 29 50 56 66 66 59 50 27 19 17 20 22 20 17 3 3 6 7 8 13 16 18 18 19 19 19 19 20 19
10 14 20 21 44 39 43 40 41 45 44 52 45 48 50 52 38 30 36 32 35 40 49 57 46 26 15 13 15 19 19 18 11 4 3 6 11 14 17 20 23 26 28 29 29 29 28 28 26
15 17 20 24 44 41 45 43 43 41 48 46 40 41 41 36 12 25 28 23 26 24 22 16 14 15 18 17 13 16 14 7 6 4 6 14 20 22 25 28 28 28 30 31 31 33 32 32 32
16 25 27 37 40 50 55 35 41 44 39 45 40 41 46 45 24 27 20 18 17 16 16 17 21 21 15 14 10 6 4 3 4 13 22 25 30 30 29 29 30 29 29 28 28 28 28 28 29
20 21 27 36 38 40 52 30 34 36 47 45 47 38 37 42 25 25 21 20 19 19 22 25 23 17 8 4 4 5 10 14 22 27 31 32 32 33 36 38 34 32 30 27 25 28 29 28 29
21 18 25 34 37 37 40 27 34 35 34 39 43 39 36 23 23 24 25 23 21 23 25 24 21 15 8 8 12 17 23 28 29 30 30 34 39 43 43 40 38 36 33 32 28 25 26 27 27
19 16 14 26 36 29 27 26 19 25 32 34 34 36 38 20 23 25 25 21 21 24 27 29 22 21 11 14 22 29 31 33 35 39 43 42 42 41 40 41 40 38 38 40 35 28 27 28 31
18 16 13 19 25 18 12 12 13 12 20 15 13 27 38 33 45 30 21 18 21 53 53 58 46 20 15 25 30 36 37 38 42 43 42 40 43 45 46 46 49 46 46 43 39 36 34 33 32
17 12 11 14 11 11 11 12 15 17 16 17 19 18 20 16 12 14 10 22 71 66 70 62 60 57 44 28 33 36 37 41 41 44 41 44 45 47 49 50 51 54 52 50 44 41 39 37 36
13 13 12 10 12 11 11 11 14 14 15 18 17 22 28 40 39 37 38 46 60 83 75 85 76 65 52 40 36 37 40 40 41 45 45 45 46 47 52 54 57 62 64 58 51 50 47 45 42
15 14 13 12 11 12 11 12 14 14 15 15 17 28 30 46 50 47 47 61 66 62 63 74 64 57 48 58 42 38 45 46 47 47 50 47 44 48 56 61 60 60 66 63 58 57 54 51 52
14 12 6 3 6 8 9 14 18 17 16 16 19 20 24 36 45 49 51 60 63 54 61 72 74 68 70 50 56 52 66 56 54 49 46 45 47 52 60 63 62 63 66 70 71 73 73 70 65
13 18 19 18 22 23 18 19 21 21 18 20 23 23 24 31 39 54 63 72 68 67 64 64 71 84 73 69 69 74 74 64 60 47 50 52 60 63 66 69 68 66 68 69 74 56 62 70 72
14 18 19 20 23 24 25 22 22 21 22 25 24 23 23 29 52 65 80 75 75 77 77 82 94 82 74 68 71 61 73 70 63 58 59 68 73 84 86 85 79 74 77 45 43 44 40 42 40
17 19 19 19 22 24 25 22 22 23 24 25 23 22 23 25 38 64 76 75 77 80 80 77 85 83 86 73 60 68 78 66 66 72 78 84 90 99 99 88 88 82 54 54 49 47 47 43 40
23 21 21 22 23 22 23 23 24 27 26 28 28 28 27 26 29 56 63 62 76 74 78 78 81 99 77 62 68 74 69 77 92 99 100 100 98 85 89 94 82 63 69 67 64 62 60 57 53
24 24 24 23 22 21 31 32 31 30 29 29 30 30 29 32 47 48 51 68 71 68 70 70 73 62 65 73 80 82 93 99 99 98 97 80 76 91 94 80 75 72 72 71 70 68 64 62 62
26 26 29 30 29 28 30 41 36 38 36 34 38 38 41 45 46 53 49 51 60 60 69 72 66 61 80 94 94 97 99 99 93 80 78 83 80 69 69 69 68 74 85 91 93 86 88 82 73
30 34 33 31 21 19 28 39 51 49 41 39 39 44 50 54 49 53 56 50 48 53 57 61 63 66 66 67 70 70 66 62 60 56 53 56 61 54 41 53 80 87 93 93 90 88 76 44 22
29 25 22 23 21 29 31 36 56 44 42 44 44 44 42 42 38 36 43 53 59 55 59 61 60 58 54 39 35 39 42 45 46 47 56 55 65 87 87 100 100 99 96 72 49 33 15 8 6
38 38 39 41 39 43 42 38 55 50 41 42 44 45 44 46 44 47 43 41 56 61 59 56 46 42 40 45 49 55 55 52 51 51 80 100 98 93 80 98 94 73 48 26 14 11 9 7 7
36 39 43 55 65 60 36 45 57 53 52 50 48 53 58 48 48 54 57 45 46 43 50 50 57 71 72 72 63 60 59 61 62 85 100 98 98 97 95 48 35 27 22 18 16 13 11 13 17
40 36 43 62 70 49 47 60 68 60 60 64 70 65 59 65 66 81 80 69 70 71 80 88 91 96 87 72 66 64 66 96 100 100 72 94 96 83 57 43 35 34 27 20 14 13 12 18 45
40 39 42 48 51 53 56 60 58 57 59 65 74 73 71 76 84 82 84 85 80 92 90 95 98 93 77 70 64 50 38 44 80 43 36 29 59 63 56 58 61 34 21 25 24 28 28 40 44
28 35 38 40 58 53 52 57 56 59 63 65 66 68 75 83 82 82 81 75 78 90 99 100 92 83 81 76 48 25 18 14 13 12 16 73 83 82 50 71 92 40 31 22 30 37 40 25 18
45 41 35 38 45 63 78 57 60 60 66 70 64 66 69 82 93 92 89 87 91 95 94 82 67 69 79 46 15 14 12 11 11 13 40 89 65 64 80 87 90 50 28 35 44 34 15 18 24
37 41 36 32 52 46 56 55 66 64 62 63 65 69 76 93 98 88 86 83 81 80 79 76 76 66 45 15 14 13 14 24 42 41 58 64 99 96 93 96 82 38 40 66 65 26 26 20 24

GFSSGP_700_rhum_015.txt.gz
RH
15 15 17 12 18 30 19 20 53 50 58 71 76 70 64 64 64 66 56 52 56 65 61 60 59 53 45 40 38 40 42 39 25 29 26 22 18 6 6 5 4 6 9 8 5 5 5 6 7
22 14 12 9 20 23 34 48 51 55 55 64 57 62 70 66 66 57 52 45 56 57 63 62 59 49 45 40 42 42 37 28 27 25 23 18 4 4 4 5 9 14 15 15 15 13 13 16 11
12 8 10 12 20 22 35 54 54 48 58 65 59 59 63 59 59 60 54 40 38 40 51 62 64 54 45 43 47 35 24 21 22 22 18 3 4 6 7 13 17 19 20 21 21 22 22 21 20
20 8 11 23 20 25 30 41 48 52 53 56 55 56 47 45 44 37 36 33 32 46 60 67 67 56 52 54 33 18 17 19 21 16 3 5 10 13 17 21 24 28 28 29 28 29 31 31 30
12 7 21 22 37 43 32 50 48 52 52 51 49 45 44 33 62 59 31 29 41 48 65 68 70 68 55 20 14 16 20 17 11 4 4 10 19 24 28 29 28 28 27 27 26 25 25 25 26
14 19 18 26 45 44 50 52 49 49 54 43 42 42 37 55 49 40 31 34 54 71 66 59 46 21 14 18 18 14 15 7 6 4 15 22 27 30 30 31 32 31 30 28 26 24 25 25 26
17 22 20 26 45 46 50 54 50 46 42 41 45 40 40 39 46 30 23 26 35 37 19 14 16 22 21 13 11 7 4 3 10 21 27 29 32 33 36 39 36 36 34 31 29 26 25 24 25
16 23 28 35 51 54 54 47 49 42 41 38 52 39 34 29 28 22 20 17 16 16 18 23 25 20 10 4 4 4 9 18 26 29 31 36 40 42 41 40 39 37 36 37 37 31 27 27 28
21 22 30 34 49 51 59 47 45 44 36 42 40 42 31 15 25 23 23 22 22 22 24 21 17 14 8 7 9 16 23 28 30 33 39 42 38 40 42 42 41 40 40 42 40 37 33 32 32
22 20 20 40 37 45 36 37 36 33 35 35 35 41 34 20 17 23 24 23 20 23 21 21 20 21 11 16 19 25 31 31 36 38 38 36 33 35 38 40 44 45 47 50 51 44 39 37 36
22 14 14 18 35 40 34 26 15 16 24 16 17 35 38 32 17 21 24 24 30 49 48 50 36 18 18 23 26 31 35 38 42 38 37 34 34 34 37 44 50 52 54 55 59 57 47 44 41
21 14 19 23 37 28 17 14 14 17 17 17 18 15 11 10 10 10 15 15 41 49 56 57 37 43 37 30 35 37 38 41 43 40 38 38 36 37 42 50 56 59 62 62 66 66 59 57 54
14 14 13 14 25 22 14 12 13 12 14 19 18 20 24 39 41 36 42 39 34 28 51 65 62 66 54 39 29 36 39 39 38 40 46 43 42 44 52 62 65 65 66 66 66 66 67 70 69
14 11 10 11 11 12 11 12 14 11 14 16 18 21 22 29 44 51 46 45 45 46 44 62 72 69 74 73 49 40 41 46 55 56 56 53 48 52 62 66 68 66 64 65 67 71 64 46 50
14 14 12 13 12 10 12 11 14 16 15 16 22 25 26 48 58 60 72 66 61 58 69 79 74 66 64 78 84 59 60 69 67 66 64 55 55 57 65 68 69 60 65 70 75 75 59 44 40
14 17 15 13 12 12 12 14 16 19 19 18 23 24 24 46 61 72 79 73 72 72 81 84 85 83 74 94 90 78 76 76 73 69 62 65 66 67 72 76 79 79 77 77 82 72 56 51 52
15 18 19 20 23 24 18 24 22 21 21 19 23 23 23 33 51 64 82 80 82 89 85 86 91 90 98 97 99 91 77 77 77 71 71 75 78 88 100 92 88 94 87 84 82 70 63 58 59
15 18 18 19 20 23 25 22 23 21 20 23 24 23 23 23 29 43 62 67 79 87 91 90 95 98 98 93 75 82 80 78 76 78 86 96 92 100 100 100 95 92 87 75 71 68 65 63 64
20 22 23 22 19 21 25 21 23 21 22 22 22 23 24 25 26 30 47 60 76 83 86 94 86 86 97 70 70 79 76 80 87 88 99 99 99 100 89 85 83 81 76 75 68 58 62 68 66
22 24 25 25 23 23 26 24 24 23 24 24 25 28 27 26 27 28 48 58 73 77 75 73 83 79 65 65 78 82 83 87 98 100 94 90 92 90 89 85 75 63 49 42 35 52 65 69 68
25 24 23 25 29 28 31 51 46 37 34 34 34 35 40 47 44 48 52 56 62 60 56 63 64 66 75 79 82 91 92 82 79 82 75 63 57 55 54 45 44 63 73 81 60 79 90 75 67
27 27 29 28 25 33 34 56 70 67 64 64 54 57 58 49 49 60 52 45 50 56 55 61 66 68 70 62 64 62 56 52 50 48 44 39 37 37 40 59 72 98 99 86 98 96 65 47 26
34 32 29 26 28 34 35 45 61 62 59 57 57 57 54 52 48 42 37 37 43 50 64 65 65 62 59 56 48 50 52 48 46 44 46 51 85 98 98 65 99 98 99 76 52 29 28 28 23
35 38 42 42 41 46 51 42 62 57 50 51 51 53 56 69 48 39 39 38 37 42 45 51 61 61 65 62 65 71 73 71 66 55 48 59 100 63 92 54 81 58 62 50 39 36 34 28 21
34 37 44 55 64 68 46 47 53 56 58 51 48 54 59 60 50 56 65 67 52 57 59 61 65 71 63 67 73 80 82 83 68 43 32 46 34 66 29 22 33 73 74 59 62 58 35 26 23
36 39 43 55 70 51 50 59 57 56 57 61 62 64 65 60 58 66 67 57 57 70 81 80 84 73 73 84 82 69 69 68 42 18 15 14 12 10 17 60 85 85 87 96 74 56 39 28 28
31 25 40 42 52 54 60 64 60 61 62 62 65 66 66 67 68 59 66 77 82 84 86 80 80 78 88 84 75 70 61 32 15 12 9 9 9 11 95 98 98 98 97 99 100 37 33 27 32
31 36 36 39 55 54 59 63 59 66 67 63 64 65 65 64 68 74 84 90 95 95 89 90 90 86 77 68 66 53 27 12 9 9 9 13 21 47 62 65 89 95 98 93 56 46 40 45 19
40 27 30 36 45 63 77 60 56 58 59 61 62 65 65 71 74 78 90 94 100 100 98 93 63 56 62 59 38 19 12 10 13 18 24 35 65 84 99 98 96 92 96 94 64 59 70 28 20
26 30 28 30 47 44 53 42 45 57 61 63 68 67 68 73 78 89 94 96 98 98 86 88 57 58 45 16 13 12 11 13 18 16 16 14 21 63 100 95 79 90 95 70 72 79 78 23 22

GFSSGP_700_rhum_018.txt.gz
RH
18 12 16 26 18 18 26 19 52 74 76 91 89 89 84 80 80 72 58 67 74 70 70 65 60 60 49 44 40 43 44 41 27 29 28 23 12 4 4 4 7 13 16 17 17 17 14 12 10
24 19 20 13 17 23 29 36 54 68 78 86 87 89 88 90 84 80 70 73 96 89 70 61 60 54 47 45 42 44 38 36 26 27 22 12 5 5 7 13 18 20 21 23 24 25 25 24 23
21 15 17 11 14 24 33 58 62 64 78 68 71 83 67 72 85 79 70 79 74 78 72 65 63 53 50 46 46 42 25 21 24 22 11 5 10 14 17 21 25 26 26 25 25 25 26 26 26
12 9 12 14 17 16 28 64 66 66 64 61 72 54 61 67 78 82 76 55 55 68 78 67 66 62 51 49 49 22 18 18 20 11 4 9 16 22 26 28 27 26 27 27 27 25 24 23 23
10 9 12 15 25 39 33 47 53 62 64 58 56 46 44 43 43 57 48 36 46 55 67 69 71 62 60 46 17 15 18 18 10 4 9 22 28 30 29 31 33 32 33 32 30 28 25 23 22
12 10 13 20 46 39 36 50 55 56 61 61 52 52 54 36 47 40 37 41 52 67 71 72 72 62 22 16 20 17 15 9 5 11 26 30 30 33 37 37 37 36 34 34 35 34 30 26 24
13 15 18 25 49 57 57 58 60 62 52 52 51 41 39 50 39 35 36 39 49 64 78 56 22 17 22 20 13 12 5 4 18 28 30 36 40 38 37 38 38 39 38 38 39 38 34 31 31
18 20 19 28 50 56 53 56 50 60 48 52 53 40 31 30 39 27 25 33 28 27 16 18 25 24 17 6 4 4 10 23 29 32 40 42 37 36 38 40 43 45 46 46 48 48 40 38 36
21 22 22 32 62 52 60 58 56 52 47 47 42 40 26 24 26 22 21 20 19 20 24 24 19 16 8 7 8 15 24 29 32 40 40 39 37 37 37 40 44 48 48 48 52 54 55 46 43
19 22 20 34 47 48 48 40 46 58 49 40 37 39 29 15 23 22 23 23 21 22 20 18 20 18 12 12 17 23 30 33 39 41 40 39 37 36 35 40 47 50 50 54 58 60 58 56 52
22 18 18 37 41 41 41 41 47 45 37 21 17 43 31 20 17 24 25 23 21 29 30 26 20 13 13 20 28 33 36 40 43 42 42 42 41 39 39 44 54 58 60 59 58 62 62 62 61
19 21 25 24 34 34 38 37 33 27 22 18 19 18 10 12 10 13 17 16 17 47 48 40 57 39 22 26 34 38 40 42 43 44 45 48 48 45 44 52 62 64 67 64 60 60 58 54 51
18 22 17 25 29 35 37 24 18 16 20 18 20 22 30 33 33 34 34 32 43 49 68 69 74 69 64 42 41 43 45 45 47 49 53 59 56 49 52 59 68 70 70 67 63 62 64 58 55
20 15 13 24 31 27 15 17 16 14 15 17 21 24 34 47 49 52 51 51 53 56 74 94 91 78 79 76 53 49 49 51 60 68 65 68 60 60 62 64 74 80 83 78 73 71 66 65 64
16 12 12 12 20 16 11 12 14 15 15 18 25 26 38 52 59 62 66 66 70 75 86 86 90 91 86 86 88 84 85 87 71 80 72 72 68 69 75 77 82 84 88 87 85 86 71 71 67
14 13 11 14 12 11 10 13 13 18 18 19 25 25 33 44 57 68 76 72 73 76 83 82 84 90 95 90 95 99 99 79 87 81 81 74 75 80 85 86 93 97 100 92 94 82 80 77 65
15 19 18 14 14 17 13 20 18 17 20 20 22 23 25 32 50 63 71 72 73 70 81 79 83 95 100 96 91 97 84 85 97 87 82 81 89 90 97 92 99 99 95 83 83 86 81 73 61
16 18 19 20 22 24 24 23 25 23 22 21 21 24 24 27 41 64 74 63 70 74 85 84 96 98 98 93 84 90 74 90 95 97 95 87 97 99 99 84 81 82 72 78 80 74 68 59 49
19 18 20 20 20 21 22 25 22 23 22 21 21 24 25 27 37 44 48 56 60 67 90 100 98 96 91 75 71 72 84 98 99 90 92 97 88 69 70 57 62 69 66 65 59 44 36 40 48
22 23 26 25 22 21 22 24 24 24 21 22 22 23 23 29 41 42 35 61 78 84 79 79 86 94 75 70 81 92 98 86 84 76 60 56 53 53 48 44 43 42 41 33 37 52 71 80 78
23 27 29 24 25 26 30 34 29 24 21 23 26 30 33 35 40 49 57 60 62 59 54 52 59 60 59 65 70 64 60 64 59 57 58 63 60 52 39 30 19 19 17 25 46 70 86 78 71
26 30 32 29 27 36 35 54 55 39 38 41 45 48 55 56 56 55 50 41 38 40 43 54 62 67 66 67 74 73 61 52 50 51 50 48 49 48 38 27 19 22 30 53 68 34 42 50 55
31 32 31 30 30 32 36 39 64 73 65 58 62 71 72 60 49 48 51 38 52 46 40 43 56 64 69 64 50 49 48 52 62 66 57 50 50 42 24 21 22 18 22 21 24 44 59 65 62
28 33 31 35 35 46 43 43 56 54 50 62 63 58 55 55 56 56 43 46 61 58 49 54 56 59 58 53 54 56 68 78 77 71 59 48 28 18 17 13 12 10 16 40 62 74 81 82 70
33 38 46 56 65 69 49 50 40 47 50 55 51 55 58 61 58 52 52 67 69 53 54 67 75 76 76 75 75 87 83 71 63 56 37 20 13 10 9 9 9 13 43 81 76 78 91 86 89
38 40 43 56 78 61 50 54 48 47 57 58 59 66 63 62 61 62 63 62 62 65 70 80 90 95 93 96 85 63 58 57 46 22 12 10 9 7 6 5 6 32 60 73 90 94 92 88 71
33 31 43 43 52 56 54 57 53 51 57 61 63 62 62 63 65 64 58 58 66 74 85 96 100 100 98 79 69 52 48 22 12 11 10 8 6 6 6 6 51 80 95 94 94 89 93 82 74
35 37 33 37 54 48 60 63 49 55 58 61 61 61 63 62 60 57 63 69 76 85 91 100 100 93 90 77 54 36 15 13 12 10 8 6 6 6 7 17 46 49 60 63 82 94 90 83 98
39 31 28 32 41 63 79 53 44 49 50 52 56 60 61 63 65 68 74 78 82 84 88 95 97 98 89 62 26 18 14 13 10 8 7 7 7 8 11 18 28 39 43 92 89 83 89 100 79
35 29 28 27 39 43 49 31 33 50 59 60 61 62 66 68 69 72 77 85 96 98 99 97 98 97 64 27 22 19 16 12 10 8 7 7 8 9 14 22 29 43 70 91 96 97 98 89 27

GFSSGP_700_rhum_021.txt.gz
RH
14 12 14 13 30 30 20 22 37 79 81 97 99 98 90 77 76 81 64 65 73 75 72 65 66 63 55 52 47 46 44 39 27 30 25 18 4 4 6 14 18 20 22 24 25 24 24 22 23
14 18 13 15 27 20 24 33 54 76 86 98 100 98 98 90 85 86 78 76 75 77 76 68 70 65 57 53 45 48 38 30 26 23 18 4 9 13 17 21 24 25 25 24 24 24 23 22 22
23 16 11 13 20 17 30 55 61 70 79 78 80 82 75 90 93 84 76 75 82 82 81 70 71 65 55 52 48 49 27 21 21 19 6 9 15 22 27 27 26 27 29 30 30 28 27 25 22
24 14 15 17 13 12 28 64 62 66 66 79 75 61 77 65 75 68 77 100 97 84 76 72 69 60 56 52 57 39 20 20 19 8 6 18 26 28 28 32 34 34 34 32 32 31 30 28 23
13 10 14 16 22 23 21 41 60 50 59 81 66 61 57 52 67 86 100 99 98 92 81 73 70 62 57 63 47 18 20 17 10 5 21 28 29 35 38 37 36 35 34 35 35 34 33 32 30
5 8 14 25 45 41 39 38 62 64 60 55 58 63 54 41 68 95 94 97 98 93 74 72 65 66 69 44 17 21 16 11 5 22 29 33 38 37 38 40 40 40 39 38 38 40 39 37 35
8 14 18 43 55 55 47 63 70 58 46 57 58 50 39 40 67 60 64 62 73 76 73 71 74 62 21 21 20 17 11 5 22 30 36 39 37 38 39 42 44 45 45 44 43 46 50 44 41
16 17 20 41 56 60 67 66 69 58 50 56 60 47 37 50 46 42 52 47 52 50 66 58 22 23 24 18 10 6 5 22 30 37 42 38 37 38 39 44 46 48 47 44 46 50 51 54 48
20 19 21 43 56 62 59 53 54 50 57 56 53 38 25 40 30 28 28 25 22 19 18 23 26 23 10 6 6 12 24 31 35 44 43 40 39 38 40 42 45 48 51 51 49 48 54 54 53
22 24 22 29 49 48 64 52 42 63 61 56 43 38 23 27 24 22 21 20 21 22 25 26 24 14 13 15 22 29 33 37 44 46 45 44 43 43 45 46 49 56 54 54 52 51 55 55 54
22 23 23 38 46 46 48 37 42 53 58 23 35 40 22 20 22 23 22 22 22 24 28 31 25 17 21 29 33 35 39 44 47 45 46 46 48 48 50 52 58 59 61 59 56 52 55 49 48
22 23 22 35 33 38 35 43 44 48 34 21 22 40 20 14 18 18 22 24 43 54 43 34 24 25 34 35 40 43 46 50 48 47 48 49 57 56 55 58 59 63 69 70 69 65 65 57 40
22 22 18 22 29 38 40 36 36 24 25 21 24 34 25 22 26 34 30 50 66 69 62 64 57 43 40 44 47 48 49 51 51 49 52 55 59 61 62 65 69 73 79 83 87 85 73 63 52
22 20 16 22 29 38 39 31 21 17 22 22 32 44 45 46 47 46 43 58 68 78 86 80 76 62 56 48 47 48 61 68 70 64 72 80 69 72 74 73 80 81 78 79 93 95 78 68 64
20 17 14 19 23 37 26 22 17 15 18 23 30 44 46 54 59 55 56 61 75 82 85 85 89 85 70 82 79 87 97 86 93 69 90 96 90 77 80 84 95 84 86 89 75 95 82 68 66
15 13 13 20 30 17 12 16 16 18 18 25 26 31 40 45 59 67 68 67 75 82 86 87 82 88 97 74 93 95 81 78 81 89 98 96 99 90 93 98 93 91 80 84 70 87 66 64 66
14 14 12 14 12 12 12 14 15 18 19 19 24 25 28 35 48 64 72 71 69 75 83 83 85 88 96 92 88 83 96 98 96 100 96 95 93 87 80 84 86 69 62 57 53 55 58 53 54
15 19 14 14 15 18 17 15 24 25 19 20 20 23 27 32 38 49 63 68 63 62 73 84 91 99 92 97 85 79 92 90 92 92 98 92 77 71 53 51 50 52 53 48 46 44 48 52 30
16 16 20 21 21 22 24 25 26 22 22 22 22 22 27 33 38 44 45 46 52 61 72 86 91 93 97 85 75 79 76 93 100 95 73 53 53 54 60 64 60 52 42 36 26 16 14 14 14
22 23 24 24 21 21 20 22 24 24 24 22 22 23 26 32 35 49 50 48 55 68 75 68 80 76 78 69 66 68 74 67 57 58 59 60 63 59 48 44 42 39 34 27 18 14 12 11 10
26 24 25 25 25 24 25 26 23 23 24 22 22 22 23 26 31 43 54 55 59 52 45 37 46 55 61 65 66 68 62 55 51 51 51 53 53 50 44 37 30 23 15 12 11 10 8 8 10
25 27 28 25 27 33 29 31 30 28 24 23 24 30 38 45 52 57 49 39 46 43 56 52 44 46 59 67 70 56 56 56 57 56 64 63 51 41 27 17 13 12 10 8 7 7 8 14 33
30 32 32 30 29 30 34 37 35 37 39 37 43 48 53 56 57 49 58 59 52 56 55 54 51 54 57 65 59 63 59 61 61 56 50 45 34 18 13 11 10 8 8 6 6 8 21 43 61
29 37 35 33 31 38 34 38 37 35 32 43 54 63 66 61 55 56 50 46 59 65 55 50 58 68 76 75 77 82 80 72 58 52 42 22 13 12 10 8 6 4 4 5 13 32 54 79 85
30 35 45 48 54 48 47 51 34 36 39 54 57 62 59 56 56 55 56 61 63 57 61 63 67 75 84 90 90 94 82 67 55 34 18 16 16 11 7 5 5 5 6 36 59 52 78 74 82
30 37 38 52 61 54 52 56 44 43 41 61 66 60 58 57 58 61 65 67 58 62 68 74 77 85 89 90 94 86 83 66 38 26 21 17 11 7 6 5 5 6 8 10 41 56 44 43 60
37 38 41 44 51 52 46 48 39 42 45 54 62 59 59 58 60 64 64 63 63 67 76 85 88 92 94 100 94 89 82 46 27 25 16 11 8 6 5 5 5 6 10 17 22 40 57 78 79
44 33 40 37 51 46 46 50 38 34 38 50 55 54 57 60 62 62 64 62 66 71 83 91 100 100 100 99 96 86 39 29 29 20 13 8 6 6 6 6 8 11 19 26 46 54 82 81 87
41 37 28 32 35 43 48 30 18 18 31 41 45 51 58 62 62 64 66 66 72 83 93 96 91 98 100 100 81 40 40 31 21 13 9 7 6 7 7 8 10 18 28 37 64 78 90 96 99
39 34 26 26 35 40 42 24 17 17 22 46 55 57 59 64 64 68 68 72 80 91 100 99 100 100 99 87 45 49 30 21 13 10 8 7 7 8 7 8 14 22 32 44 68 79 99 100 100

GFSSGP_700_rhum_027.txt.gz
RH
10 14 18 13 27 25 21 19 25 66 74 90 97 78 77 90 75 71 81 76 81 86 78 59 52 47 46 49 51 50 45 35 30 24 17 5 10 18 24 25 25 27 28 28 28 27 26 25 24
10 13 14 28 24 19 16 17 24 68 81 66 80 93 91 96 85 86 81 92 76 86 73 68 69 53 52 50 55 53 41 32 27 20 9 10 19 26 27 30 32 32 31 30 30 28 27 26 25
10 11 24 23 21 18 18 38 65 79 86 78 82 82 80 88 78 81 81 81 92 91 82 81 68 61 55 58 62 52 35 26 22 14 8 19 28 29 34 34 33 33 34 34 34 33 30 28 27
10 11 25 24 20 17 21 58 59 66 69 70 70 57 63 62 74 83 90 85 93 80 88 97 72 60 64 66 65 47 25 22 18 6 15 29 32 37 36 36 37 37 38 40 39 37 36 34 32
10 23 20 19 20 20 19 55 67 58 74 58 58 81 54 48 70 71 80 86 93 96 81 97 92 73 71 75 63 34 21 23 10 10 28 33 38 38 39 39 39 40 40 40 38 39 39 38 39
17 20 18 17 18 22 23 39 46 65 64 68 66 80 56 55 66 59 70 85 98 96 83 93 93 79 74 66 50 24 24 18 6 25 32 41 41 42 42 42 44 43 44 45 45 44 43 45 44
21 15 15 15 21 35 29 48 62 60 64 75 65 78 45 57 66 86 81 90 93 86 95 87 81 79 67 67 31 22 21 10 15 33 42 42 43 43 43 44 43 44 46 49 49 49 46 42 49
18 20 14 16 31 52 43 55 57 64 87 65 51 76 54 48 71 82 86 99 84 100 99 93 92 84 70 28 24 24 20 7 30 39 45 44 45 44 43 44 43 47 50 53 52 54 52 46 44
25 20 14 17 45 55 53 56 68 67 62 53 41 78 77 42 71 78 95 100 100 97 91 93 92 66 28 27 26 24 10 17 36 45 46 46 44 45 46 48 48 53 56 56 61 63 61 60 53
21 16 14 20 45 42 49 52 66 62 52 66 69 69 32 58 60 62 72 90 94 84 82 85 45 41 37 15 10 10 6 27 40 47 47 47 48 48 50 52 54 57 60 63 70 72 63 57 68
21 21 22 23 44 57 43 43 51 62 75 86 84 47 34 48 57 64 68 78 79 78 39 30 38 28 15 9 6 7 15 35 43 50 50 50 54 56 55 56 59 64 68 77 82 73 72 65 54
24 25 24 23 45 37 33 44 45 52 56 72 69 38 29 37 40 44 48 48 31 25 28 28 26 19 18 17 15 16 53 40 48 60 60 58 63 67 62 92 69 74 78 81 84 85 74 66 42
27 24 27 35 39 35 48 40 42 55 46 62 41 33 26 26 52 52 54 44 26 30 33 33 27 22 25 27 27 29 37 55 58 60 62 62 76 72 71 74 89 98 99 95 82 67 74 58 35
24 26 22 24 37 47 40 40 44 44 56 74 44 70 72 80 83 87 84 85 50 47 46 41 33 28 33 34 38 49 56 50 52 49 54 71 87 83 81 94 95 100 90 75 59 43 48 41 39
26 24 20 23 35 33 52 26 32 25 60 76 74 82 77 77 76 39 53 60 66 57 58 65 70 60 46 40 48 52 54 57 45 61 59 62 72 67 93 100 100 91 60 47 41 39 43 42 42
24 22 23 26 29 36 42 23 13 29 55 62 70 78 79 78 78 41 60 62 66 64 65 70 80 86 86 87 65 77 70 72 65 70 69 86 84 88 100 96 65 47 44 42 42 45 37 31 25
23 20 19 21 22 25 30 26 13 20 49 62 72 70 74 50 57 51 51 69 68 60 65 75 82 85 96 96 99 72 80 92 88 99 89 99 96 78 63 46 42 44 44 43 34 31 27 23 24
20 17 16 17 19 24 19 25 20 23 42 58 67 73 72 54 57 59 58 71 70 68 69 74 77 87 92 97 83 68 74 91 96 90 81 72 56 45 43 40 43 46 40 34 30 28 28 27 22
19 21 13 18 25 19 16 24 30 31 41 52 58 70 79 60 54 62 65 68 72 63 71 74 80 87 92 84 84 64 82 90 64 54 51 44 43 45 46 45 42 38 33 30 33 31 27 21 16
18 17 18 22 18 21 21 23 35 24 46 50 55 65 73 87 36 50 54 59 68 61 70 81 88 90 84 60 70 78 77 59 54 47 44 50 55 54 51 45 39 36 33 29 25 21 17 12 7
20 19 22 21 26 24 26 28 43 26 46 46 62 66 74 85 34 42 46 48 62 59 61 72 75 53 50 58 70 66 60 53 51 55 63 66 69 64 57 44 43 36 29 23 17 12 8 6 4
24 24 27 27 30 24 26 19 30 47 25 22 22 54 83 49 34 30 30 37 52 57 45 43 60 54 50 56 57 55 64 93 81 94 86 82 76 76 52 44 39 28 20 14 10 7 5 4 4
46 24 30 28 25 34 27 21 29 49 48 29 23 24 26 26 27 32 41 51 46 54 53 54 54 51 49 55 62 73 78 88 96 96 94 87 82 58 51 37 30 19 14 10 7 6 5 4 5
26 35 35 32 22 25 18 22 22 37 38 54 54 33 32 32 35 44 50 46 51 50 59 51 52 56 61 67 72 77 81 86 85 89 97 85 57 49 38 28 17 14 10 7 6 5 5 8 10
32 30 28 32 28 28 27 26 19 17 38 45 77 63 75 44 42 46 52 52 49 60 57 53 57 63 69 73 77 82 89 97 97 98 88 77 57 42 29 19 14 10 7 6 6 7 63 21 80
32 27 29 30 26 20 31 21 19 27 35 49 80 72 71 50 52 56 55 52 59 61 56 61 66 68 74 80 86 94 98 98 99 98 85 64 48 32 21 16 12 9 6 6 6 11 44 87 74
31 32 33 34 34 35 19 15 32 25 35 53 77 88 78 62 60 59 56 56 63 62 60 64 69 73 74 80 87 94 94 100 98 81 64 51 35 21 16 13 10 7 6 7 9 57 74 83 60
36 36 32 29 35 32 16 17 18 40 38 53 70 80 90 89 68 60 57 58 63 62 61 65 73 73 74 76 84 95 100 98 89 66 51 36 21 17 13 10 8 7 7 8 18 32 28 91 87
43 34 33 34 36 33 23 16 24 25 38 46 60 73 83 88 90 67 60 60 65 66 65 70 73 74 74 79 93 100 99 90 73 57 39 21 18 15 12 9 7 7 9 12 14 17 32 59 91
40 35 36 33 28 35 44 26 20 10 32 41 49 63 75 81 85 94 68 62 65 70 71 70 73 79 77 86 97 99 93 82 68 42 25 18 16 14 10 7 7 8 12 11 12 16 30 90 99

GFSSGP_700_rhum_030.txt.gz
RH
7 10 14 18 25 28 23 19 32 70 70 77 77 57 62 72 61 68 75 99 77 78 78 58 46 40 41 41 37 43 38 31 29 21 12 6 15 22 24 25 28 30 29 28 27 26 25 24 23
6 12 16 23 25 22 19 38 51 66 72 70 54 63 72 65 64 81 88 95 67 81 80 57 48 46 50 45 45 47 36 29 24 18 7 12 24 26 29 32 31 30 30 30 29 28 27 26 26
6 11 18 19 24 23 18 37 64 58 52 53 52 63 67 68 64 81 82 75 87 91 80 58 54 64 60 52 51 46 33 24 20 11 8 23 28 33 34 33 32 32 32 33 34 34 34 33 32
7 10 17 27 22 18 22 49 39 42 68 66 69 60 57 65 69 76 75 90 95 99 80 71 88 86 78 58 60 46 26 21 17 7 19 29 35 36 35 36 35 35 36 37 38 40 38 39 39
8 20 18 20 19 18 21 44 39 57 64 64 75 75 52 46 51 58 70 89 100 97 91 91 96 99 87 72 66 38 21 21 11 11 28 35 37 39 39 39 39 40 41 43 44 44 41 39 44
25 19 21 20 17 17 20 29 56 74 64 61 82 77 58 40 54 78 91 96 99 100 100 98 96 99 98 78 61 38 25 18 7 25 34 40 41 42 42 41 43 44 44 45 49 49 46 42 44
27 17 16 16 17 23 30 43 59 72 86 70 72 72 88 89 58 64 80 99 100 98 96 98 97 98 76 80 70 34 27 13 13 33 42 41 43 43 41 41 41 44 48 52 52 54 51 50 45
20 20 19 17 13 29 42 49 45 47 56 55 57 50 97 96 94 68 80 93 100 100 98 96 98 69 72 69 45 31 28 11 26 36 44 44 43 43 42 43 45 46 54 55 57 60 57 56 52
18 20 20 16 14 48 39 55 74 62 63 58 52 49 54 68 52 82 98 100 97 99 96 100 99 86 82 51 32 30 19 8 31 42 44 44 42 41 44 48 50 52 56 57 58 59 62 64 60
22 21 19 25 38 49 40 49 75 59 66 65 74 95 57 44 62 75 92 94 99 98 98 77 82 86 43 30 29 24 14 13 37 47 46 46 45 46 48 52 56 57 60 62 67 76 70 66 68
22 20 20 30 36 43 45 45 51 59 65 52 64 62 38 61 60 76 93 98 96 90 88 87 60 43 39 21 13 13 8 15 37 44 51 54 47 50 58 84 93 61 60 65 72 93 79 68 51
22 19 22 25 43 37 40 52 50 54 38 55 56 51 41 44 55 62 78 84 87 74 42 29 35 26 18 12 8 7 8 19 41 46 50 51 51 61 66 64 85 66 83 86 96 92 75 47 44
21 23 22 26 42 37 35 48 56 45 66 59 58 82 27 36 65 62 55 53 32 26 24 28 28 23 19 17 15 13 16 30 44 50 52 53 60 60 69 76 89 75 72 95 98 68 48 41 40
19 26 24 23 39 36 43 54 41 67 70 49 53 24 26 51 86 95 63 23 21 27 33 37 33 23 19 18 22 29 32 38 48 43 44 51 60 69 73 82 90 99 87 92 45 41 42 36 35
28 25 24 22 34 40 46 42 34 59 69 90 88 82 76 78 84 75 84 43 52 42 52 58 64 66 54 40 35 36 42 43 42 44 54 60 73 82 78 78 75 100 68 40 38 39 35 33 31
29 24 25 25 32 36 38 48 28 54 64 67 72 75 74 71 75 72 41 60 66 48 54 66 71 76 82 69 81 62 80 74 51 49 63 58 62 75 83 85 78 42 34 37 39 38 37 34 30
25 26 30 26 25 36 40 35 31 43 55 62 72 73 77 72 53 39 52 64 73 51 55 66 76 77 88 91 96 87 72 51 65 67 56 65 85 87 64 50 38 37 40 42 43 41 38 32 30
28 27 24 21 19 22 31 30 30 36 49 57 68 73 82 51 70 46 51 61 74 49 55 69 72 75 84 92 98 84 67 67 74 69 85 86 69 50 43 36 38 42 46 49 47 43 36 30 26
26 23 21 18 19 20 25 23 25 32 39 56 64 74 80 68 62 44 53 66 67 50 47 71 76 86 88 95 91 64 52 52 57 78 63 50 44 40 42 45 46 48 53 50 47 35 29 24 20
27 25 20 19 21 21 17 19 25 30 36 43 57 65 73 80 59 33 51 61 65 65 61 74 75 83 89 91 69 58 60 54 59 56 50 41 42 50 55 57 62 63 53 50 36 29 23 19 15
22 21 24 21 19 14 20 17 27 33 36 37 45 53 66 78 70 47 51 60 53 47 62 71 66 72 79 64 50 49 47 56 58 50 42 49 61 67 67 66 59 53 48 36 27 21 17 14 11
26 35 26 24 24 23 24 25 37 40 41 44 46 51 58 69 80 67 40 30 37 50 64 63 64 52 55 53 48 45 61 60 50 54 65 74 80 83 76 66 56 48 38 26 20 16 13 9 6
28 28 29 23 23 31 30 42 36 46 31 50 58 61 62 70 81 80 33 28 34 43 61 50 50 53 47 52 50 54 62 65 71 77 83 96 97 86 71 63 53 40 26 21 18 14 9 7 5
31 30 30 26 23 50 31 41 40 44 34 48 55 65 75 66 64 71 77 30 42 52 51 50 55 53 49 51 58 65 69 76 81 89 100 100 100 85 68 56 41 26 22 18 12 8 6 5 6
27 26 31 63 63 48 23 26 22 32 47 41 51 67 75 61 84 92 82 38 48 48 50 56 56 52 51 53 58 66 76 79 85 92 88 95 96 72 58 44 28 24 21 15 9 6 5 7 19
30 24 40 72 83 40 28 23 24 24 35 44 62 82 84 93 81 64 53 58 49 51 53 59 55 54 56 58 62 67 76 83 92 88 91 98 91 68 48 32 26 23 17 11 6 6 6 8 29
30 30 29 30 44 38 24 17 21 30 17 39 67 76 90 85 65 55 54 54 54 53 56 60 57 57 56 59 61 71 76 82 92 98 99 96 66 50 35 27 25 20 13 7 6 7 7 10 33
21 30 32 28 39 38 20 18 34 33 36 39 64 80 90 93 86 68 63 59 58 55 57 62 60 61 59 57 66 73 79 90 96 99 100 80 55 42 29 28 24 16 9 6 6 8 9 13 15
38 37 28 24 30 50 51 25 22 26 32 36 51 68 77 78 73 61 64 64 62 58 60 64 66 69 64 65 72 78 86 97 100 100 92 71 46 30 28 28 20 10 7 7 8 9 12 13 13
33 37 32 35 32 33 36 38 24 13 24 37 44 55 69 73 76 83 74 79 71 67 66 64 68 73 69 69 75 88 96 99 99 99 96 76 30 20 27 28 14 8 7 9 11 11 13 16 21

GFSSGP_700_rhum_033.txt.gz
RH
19 7 14 12 20 26 27 22 28 46 58 49 44 44 41 39 45 55 59 71 83 79 82 71 47 38 36 37 36 34 32 27 24 18 9 7 16 21 22 25 26 26 26 26 25 26 25 25 25
15 8 14 21 24 24 26 32 40 42 51 56 52 44 41 42 46 60 76 88 90 78 88 74 56 42 41 43 40 39 34 28 22 15 7 11 22 24 27 28 27 27 28 30 31 31 30 29 29
11 8 16 18 21 25 24 52 48 37 47 52 55 51 57 52 49 57 70 75 99 97 83 63 60 48 53 55 51 42 31 24 18 10 7 22 25 29 29 29 31 31 33 34 35 34 32 36 36
9 12 15 19 20 20 22 28 37 52 60 63 72 56 53 45 49 62 76 86 98 99 78 63 61 64 74 64 58 40 26 20 14 8 17 27 30 31 32 34 34 36 37 39 39 39 35 36 42
9 13 17 19 22 20 21 38 44 56 59 63 76 68 58 54 53 62 86 91 94 100 88 75 70 88 88 81 65 36 23 19 10 13 27 31 33 34 34 36 38 39 42 43 43 43 42 37 40
15 19 21 18 20 21 31 57 46 50 52 58 64 62 55 55 44 71 99 98 100 100 91 81 93 100 94 85 63 35 23 17 9 26 33 36 37 37 36 36 39 41 44 45 44 46 47 48 47
15 25 18 18 17 18 43 49 58 55 52 43 48 65 76 69 55 64 91 100 100 100 97 99 98 99 87 77 70 59 24 15 13 32 40 39 39 38 37 36 36 37 40 44 45 52 54 54 52
22 24 22 20 20 23 54 52 63 68 65 66 76 80 73 67 55 64 73 99 100 100 100 97 97 77 77 76 73 44 27 16 14 32 40 39 37 37 36 38 41 45 48 50 48 53 55 58 56
25 25 19 18 31 48 54 54 52 64 70 68 62 57 66 87 72 70 80 92 100 100 99 99 92 89 81 79 62 38 25 13 20 33 40 40 37 37 39 45 47 52 54 54 55 56 58 64 65
25 22 20 22 37 31 36 47 46 46 59 70 61 68 80 75 65 84 87 98 95 98 97 89 89 91 85 66 45 27 18 10 16 32 41 41 39 42 43 45 56 57 57 59 61 62 64 69 61
24 23 22 21 42 34 35 45 41 47 61 70 77 81 88 59 79 83 86 78 70 69 58 73 86 85 44 32 27 18 16 8 14 35 39 43 46 41 48 61 74 97 76 73 67 68 68 66 44
23 23 22 25 36 55 42 45 47 49 48 58 72 70 69 62 70 84 60 83 58 76 77 48 41 39 31 21 13 8 6 5 20 34 42 37 46 51 55 66 72 70 82 80 80 88 84 59 34
24 21 23 27 39 74 52 51 44 44 44 58 68 49 57 74 66 74 79 48 36 30 33 53 33 26 20 15 13 10 9 8 21 32 37 52 54 61 67 70 78 87 92 92 93 69 40 32 33
22 20 25 24 38 49 47 43 45 42 32 35 51 56 44 60 49 49 45 26 22 29 32 31 28 29 27 24 21 21 25 28 30 38 47 47 50 61 65 73 77 88 87 93 71 41 34 38 38
24 22 26 23 33 43 44 44 53 49 45 31 29 32 61 79 78 51 43 36 32 38 45 56 60 69 69 74 60 65 48 43 40 44 39 43 54 69 77 76 79 81 80 66 35 36 42 44 42
26 27 24 24 33 38 34 40 54 62 45 65 72 72 91 92 84 63 29 35 31 43 54 60 66 73 83 84 75 84 76 68 67 63 46 52 59 62 64 72 80 54 38 34 39 43 46 43 40
28 28 26 25 32 34 37 34 49 61 52 57 75 74 79 79 67 51 38 43 44 49 57 61 65 78 76 82 80 79 66 62 61 69 60 52 52 65 63 68 58 38 36 36 41 45 41 40 35
32 28 27 28 21 24 36 32 40 52 58 52 59 72 69 55 56 46 45 41 31 41 48 60 70 70 70 77 79 81 71 48 43 43 49 66 67 63 71 50 38 41 46 48 47 41 38 35 28
30 28 28 27 20 21 30 30 31 45 56 56 53 58 60 48 37 46 57 43 37 30 38 45 72 73 70 74 82 78 69 60 54 57 60 64 64 52 41 38 47 48 47 48 43 40 39 30 25
39 31 29 27 24 20 26 34 27 27 45 56 60 64 60 57 40 50 68 46 36 31 36 63 71 81 80 83 88 88 76 75 55 52 43 51 48 42 45 56 59 62 59 54 49 42 33 27 23
33 35 28 23 16 20 19 24 26 28 33 44 52 52 62 60 58 56 56 48 42 46 57 61 62 74 75 70 78 59 55 48 46 46 46 48 43 50 60 80 76 64 63 54 46 36 29 27 22
35 35 32 30 24 20 22 38 31 31 34 37 44 48 54 64 68 68 68 53 44 49 50 51 56 62 64 55 57 51 48 47 51 56 59 63 64 78 80 90 82 68 58 48 38 30 29 25 16
30 31 31 26 27 27 30 28 34 32 33 37 42 45 48 57 58 62 65 72 70 51 49 48 54 65 51 53 50 47 49 53 59 66 66 78 76 72 91 85 77 63 52 43 32 30 27 21 12
36 25 27 32 35 42 27 27 35 33 30 37 41 48 54 57 63 71 69 77 74 38 40 43 68 52 53 54 50 49 52 55 56 67 80 85 94 100 99 95 71 64 47 33 29 25 19 11 7
38 30 41 52 64 65 41 42 34 28 30 35 36 33 50 62 72 70 72 64 49 38 44 56 52 51 55 53 52 53 53 56 69 77 82 91 100 99 100 97 78 52 32 30 31 25 14 7 5
32 32 36 75 85 69 37 47 35 27 37 41 39 48 48 61 60 58 58 50 38 45 51 49 51 55 56 55 55 54 56 66 72 74 84 93 90 97 94 96 64 37 28 30 27 17 9 5 5
34 37 32 40 57 68 34 25 37 39 42 40 49 50 62 65 53 33 34 40 47 52 51 53 54 58 59 58 55 55 61 68 75 82 87 99 99 98 100 86 79 52 34 30 20 12 6 5 6
28 27 31 29 45 46 30 28 38 37 40 47 51 56 53 40 53 61 53 45 46 55 56 56 56 61 64 63 63 64 69 77 83 90 100 99 97 99 100 87 56 35 37 29 16 8 6 8 10
33 31 31 29 29 61 71 31 28 32 32 49 58 61 59 52 44 40 43 48 49 55 59 62 60 63 64 66 69 73 80 87 96 100 98 99 98 98 80 59 37 48 42 14 9 7 9 12 13
28 37 40 30 33 35 38 35 31 19 15 18 21 44 61 64 64 63 54 48 41 39 38 49 65 72 72 71 72 77 89 98 100 100 100 100 99 97 86 37 44 25 18 10 8 9 10 14 16

GFSSGP_700_rhum_036.txt.gz
RH
20 17 8 12 16 19 26 22 24 37 47 51 49 51 49 51 52 49 52 59 75 82 78 57 47 52 44 36 34 30 27 26 20 16 8 5 10 16 20 22 24 25 25 24 25 25 24 24 22
19 13 8 17 20 25 24 25 34 58 58 51 49 47 44 39 38 42 64 69 90 95 79 64 72 69 37 37 37 32 30 27 21 13 7 8 15 21 22 25 26 27 28 28 28 27 25 24 24
15 10 14 19 21 22 22 39 53 51 44 52 52 48 42 37 33 35 50 81 87 93 87 80 78 49 43 42 43 35 31 26 18 9 8 16 22 24 26 28 30 30 29 29 31 32 28 29 27
13 10 19 19 18 20 23 22 24 47 45 45 55 48 47 49 43 42 52 79 98 97 98 98 67 57 54 53 48 37 31 21 14 8 19 24 27 27 30 30 32 32 33 34 34 35 33 32 40
12 18 19 15 13 19 23 27 24 49 54 43 49 58 58 53 51 52 56 66 96 97 99 95 71 68 68 63 51 41 27 19 11 10 25 26 29 31 30 31 34 35 35 37 37 37 40 41 43
16 23 20 15 16 20 26 36 50 58 56 56 61 69 64 62 57 45 80 98 100 99 98 80 76 77 90 76 62 41 25 14 10 21 27 27 30 31 31 33 35 36 38 39 40 44 44 43 49
17 25 22 20 18 21 22 49 51 60 57 59 70 69 61 67 67 50 82 100 99 99 100 98 98 100 98 97 69 40 28 15 13 26 30 30 32 32 31 32 34 35 37 42 42 43 47 47 53
26 28 22 22 25 29 33 53 51 59 55 58 55 76 69 67 69 63 76 99 100 100 100 100 100 100 98 84 76 64 27 12 17 29 32 32 33 33 34 35 37 44 48 50 48 50 50 53 52
27 22 20 20 22 40 41 43 51 56 52 55 68 66 75 82 86 63 75 88 97 98 98 96 96 91 51 85 80 47 29 13 18 27 34 37 37 35 34 39 44 45 52 55 61 65 64 60 56
28 26 23 21 25 47 49 41 45 39 46 48 43 65 75 96 87 74 86 79 86 98 98 79 69 69 84 75 57 39 27 17 18 29 38 41 39 40 39 42 46 50 75 78 70 68 71 70 68
26 26 23 23 25 44 48 49 48 50 52 58 58 65 83 95 96 69 52 53 97 89 66 75 84 85 78 48 44 32 20 12 18 28 39 42 41 42 44 43 54 58 70 74 74 71 68 64 46
24 23 23 24 34 49 46 53 50 49 69 73 85 74 67 76 85 54 41 32 22 42 37 58 88 71 44 36 34 23 18 12 13 28 37 42 47 51 51 55 61 64 68 70 71 76 75 62 42
26 24 23 25 41 40 47 56 48 54 50 72 78 61 60 55 72 64 46 29 27 31 40 28 33 29 24 17 12 9 10 7 9 27 36 43 44 51 63 63 62 67 71 78 80 80 60 40 39
30 22 24 25 34 41 47 51 49 51 30 66 72 60 47 54 76 59 36 23 27 42 50 60 49 31 23 20 19 23 24 16 19 32 36 42 58 58 62 64 67 73 79 84 84 77 38 40 43
29 27 22 38 46 46 50 45 53 49 35 53 68 52 48 67 58 44 25 24 35 48 50 58 64 63 63 50 62 67 55 60 35 38 45 51 54 58 67 66 64 71 78 65 40 36 37 43 46
24 27 33 33 43 42 39 43 53 61 44 37 49 40 50 44 49 37 37 33 47 53 57 62 70 74 78 72 67 69 70 62 67 59 59 60 52 62 65 58 63 71 69 48 36 39 45 46 44
27 27 27 35 36 33 36 36 36 55 50 43 65 71 54 47 41 39 41 42 42 48 54 60 67 68 66 63 65 69 69 57 42 48 52 54 60 60 56 59 68 60 64 39 40 45 43 43 39
38 30 28 27 32 28 34 37 28 51 56 49 40 61 66 46 34 37 33 40 48 48 56 66 73 70 62 61 67 71 70 64 44 44 48 44 53 53 56 60 55 57 41 44 48 47 48 44 40
40 34 32 29 28 28 24 31 32 44 56 57 60 54 47 59 42 34 32 32 39 48 49 52 59 69 66 68 70 72 71 64 47 54 50 46 42 36 50 59 48 40 49 57 57 51 51 47 42
36 38 33 31 28 27 28 30 34 35 48 53 51 56 51 52 51 44 37 40 36 43 59 58 63 67 67 77 73 66 69 51 48 47 40 36 38 52 52 44 41 57 66 69 65 59 54 47 39
38 38 35 33 28 24 27 35 34 38 54 63 60 55 53 51 55 49 46 51 44 39 46 58 68 70 69 75 75 55 51 48 43 42 41 45 48 50 48 45 61 77 82 82 65 59 51 41 34
38 35 33 34 28 20 20 35 33 29 36 55 56 59 56 55 54 51 51 56 56 53 59 57 61 58 68 70 68 53 51 47 46 46 52 57 58 58 67 74 69 69 73 75 66 60 50 39 36
36 39 37 34 29 30 31 27 28 28 32 35 46 56 60 55 49 48 50 55 60 57 75 82 68 62 64 65 60 53 51 48 49 53 59 67 71 68 79 79 88 97 95 91 80 68 45 38 35
39 39 32 36 35 42 39 38 32 28 26 31 34 32 42 58 60 61 66 61 60 76 76 75 58 56 56 63 54 54 52 51 53 55 63 69 72 80 91 98 100 99 96 95 67 50 38 36 31
37 40 40 46 62 54 40 38 30 29 28 30 30 32 34 50 63 59 66 69 75 72 70 56 54 54 57 54 56 55 54 53 56 64 70 74 80 97 100 98 88 98 99 82 44 42 30 38 39
40 37 36 51 69 54 42 40 29 24 24 26 29 34 38 44 54 64 72 73 77 75 56 52 48 53 54 56 59 57 59 62 71 75 82 96 100 96 96 98 99 100 98 92 66 27 36 44 21
39 37 34 34 58 60 42 32 31 34 26 28 32 40 41 49 45 48 62 68 68 58 48 58 54 55 54 59 63 62 67 77 80 90 98 100 100 98 99 100 100 98 98 93 34 37 52 18 8
39 35 36 38 55 59 35 34 39 40 28 25 41 40 46 43 49 62 66 53 44 49 59 67 60 57 57 61 67 67 74 82 88 98 99 100 98 100 99 98 99 99 96 70 50 47 51 13 9
30 31 31 30 33 57 68 32 38 30 13 18 19 19 23 28 34 31 20 16 20 28 39 58 63 64 65 66 70 74 77 84 96 99 98 96 99 85 98 100 98 100 92 41 39 51 58 16 17
40 40 37 36 33 36 40 34 31 29 24 20 24 33 33 30 27 25 20 18 25 34 43 41 48 54 66 74 80 79 88 98 100 98 99 93 93 100 99 100 93 89 67 32 48 56 20 28 20

GFSSGP_700_rhum_039.txt.gz
RH
23 21 17 8 16 18 19 20 22 24 38 55 59 53 51 58 57 54 52 58 63 69 66 61 54 50 38 30 34 30 28 26 21 14 5 4 13 16 19 20 22 24 24 24 24 22 21 21 20
23 20 10 13 17 23 18 21 27 35 51 62 56 53 51 50 50 49 50 60 72 76 70 62 55 50 38 37 54 31 30 25 20 11 6 8 16 20 21 23 23 26 26 25 23 24 23 21 20
22 17 14 23 22 19 18 22 55 58 61 60 57 51 44 41 43 48 68 77 86 87 76 66 58 52 45 59 36 34 30 26 19 9 8 10 22 22 25 25 26 27 28 27 27 28 27 26 25
16 14 18 22 14 15 18 22 25 33 38 54 58 58 53 51 50 56 65 95 91 96 80 69 62 60 73 46 40 35 31 26 14 10 9 16 25 26 28 27 26 28 28 30 30 30 32 32 33
15 17 22 13 15 18 20 21 28 37 38 56 55 52 55 58 54 51 91 100 98 97 87 79 77 84 68 50 46 36 29 20 18 12 18 25 29 29 30 29 30 31 33 36 37 38 40 38 38
14 21 19 21 15 19 20 21 27 40 44 58 57 57 64 61 61 55 56 92 100 98 98 90 96 99 69 62 44 35 34 38 22 16 27 31 32 33 33 33 33 33 35 36 40 44 43 44 46
14 23 28 20 21 26 40 32 51 60 63 65 59 55 55 61 63 58 68 95 99 99 99 100 100 99 80 49 47 49 37 17 20 30 34 36 36 36 36 35 33 32 33 41 46 46 51 51 50
17 28 22 21 22 26 44 46 61 56 56 58 61 60 71 74 74 73 82 97 100 100 100 100 100 99 91 66 62 55 48 27 21 34 38 38 40 41 39 34 32 34 43 49 54 60 60 62 60
26 28 22 22 23 35 46 50 51 58 59 50 60 60 80 75 82 80 76 99 90 100 100 98 100 99 94 95 74 47 17 21 35 39 41 41 41 38 37 37 40 44 52 61 66 60 57 58 62
28 29 26 25 25 26 42 43 54 66 62 57 64 69 69 83 90 82 75 86 79 98 98 100 100 99 88 66 36 46 22 19 37 42 43 44 44 42 41 41 41 45 53 56 58 66 60 66 58
29 27 27 25 25 48 45 47 49 63 62 65 71 70 67 80 76 47 62 88 100 92 98 95 63 56 56 58 54 40 28 20 36 41 44 48 48 45 43 43 44 53 57 57 63 68 70 66 50
26 27 31 26 32 42 49 53 55 61 64 75 82 74 66 75 77 50 40 90 48 62 67 80 91 80 56 45 44 38 29 18 26 39 44 49 47 46 48 52 56 59 63 63 66 67 76 68 36
26 36 24 23 32 38 39 38 52 56 62 82 84 61 65 51 53 52 34 46 63 39 64 71 76 55 40 37 38 26 22 14 23 38 44 47 48 55 56 58 60 68 64 71 74 66 67 44 37
30 32 25 27 34 41 40 37 49 55 30 70 73 50 45 48 52 63 33 45 36 34 48 42 30 27 21 18 14 14 16 14 14 29 37 46 48 55 59 61 66 62 59 75 76 56 44 40 43
34 28 31 34 41 48 40 50 58 52 44 75 72 60 46 33 43 64 24 36 50 57 58 52 50 37 32 38 43 34 35 33 33 31 42 48 57 58 63 64 65 62 66 81 66 46 42 43 48
34 30 30 31 46 46 44 51 49 61 30 62 72 57 49 54 48 35 32 41 53 57 60 63 65 65 64 69 70 70 60 62 63 58 60 62 66 65 69 68 67 65 78 76 54 44 51 53 54
31 28 28 30 51 48 43 42 47 57 43 32 25 32 58 44 38 35 35 46 54 58 62 63 62 65 58 63 71 73 73 72 56 51 52 56 65 68 68 73 74 79 80 58 47 58 60 57 51
39 33 32 38 42 42 36 34 38 46 50 34 26 39 37 36 38 41 41 42 46 50 54 60 64 59 57 67 67 68 72 71 65 54 52 54 62 56 60 71 72 77 65 47 54 63 60 54 54
41 39 36 32 33 35 30 33 33 38 63 58 42 30 27 27 28 33 39 42 44 41 43 49 57 59 65 70 72 74 71 73 74 64 61 63 59 54 58 57 69 66 50 46 60 58 57 62 54
40 35 33 28 31 33 28 28 36 33 33 42 44 47 50 39 37 29 29 31 36 43 43 47 51 61 68 70 77 80 80 77 64 56 51 52 54 42 44 49 52 52 45 57 57 65 69 74 63
37 36 35 34 32 28 26 29 34 34 37 51 51 57 56 52 52 48 44 46 45 44 44 51 56 64 69 75 72 77 75 59 58 56 51 50 47 49 50 52 54 50 57 61 69 70 67 70 77
33 35 38 37 38 23 27 30 29 33 34 44 44 54 48 46 51 59 48 46 51 51 53 62 67 63 66 64 66 70 73 61 68 56 46 47 49 50 51 58 64 65 68 65 69 94 70 82 69
35 37 43 39 36 36 35 32 26 28 33 28 32 45 50 48 50 57 56 56 63 57 60 70 79 68 66 67 66 72 62 56 65 52 49 47 50 54 61 71 76 82 91 94 99 93 80 82 64
37 38 40 33 35 44 40 37 31 29 28 28 29 33 43 47 48 46 49 55 56 58 57 64 77 80 76 59 65 67 60 57 59 52 50 53 59 67 73 81 89 84 92 99 96 90 95 75 58
35 39 44 48 58 52 40 44 30 27 30 30 33 32 33 47 50 48 52 52 56 59 60 74 79 74 67 61 67 61 64 64 65 57 55 60 69 77 86 90 89 99 99 97 98 100 96 85 91
40 42 40 50 64 51 42 44 32 28 24 21 30 33 40 39 40 54 57 57 58 55 58 72 69 68 65 60 55 56 65 60 66 73 64 70 93 97 98 98 99 99 98 99 96 99 96 74 26
42 40 38 39 60 57 40 35 26 20 24 25 26 31 33 36 38 42 51 65 76 70 68 76 63 66 55 51 54 57 63 65 67 76 89 100 99 100 98 99 94 99 99 96 99 97 93 68 69
40 40 40 39 50 59 42 35 30 33 33 29 28 32 37 42 39 41 45 61 80 79 58 52 58 50 52 56 59 61 68 70 73 94 99 100 99 99 99 99 100 99 84 97 99 99 71 59 84
32 40 38 34 36 55 66 37 28 29 15 20 18 17 14 12 24 24 22 21 19 19 24 30 29 28 33 46 53 56 60 62 73 89 96 99 99 88 94 86 88 98 99 100 99 96 72 87 78
45 37 37 34 35 39 42 34 28 29 29 25 22 25 21 19 18 19 23 25 28 31 32 61 60 65 66 70 74 73 74 79 95 100 90 98 88 99 89 100 100 98 98 99 98 94 86 89 76

GFSSGP_700_rhum_042.txt.gz
RH
25 23 22 13 15 16 18 16 20 23 27 30 60 62 62 60 60 57 55 54 60 71 65 62 60 58 54 39 33 29 27 25 22 16 5 7 14 16 18 20 20 19 20 22 22 22 20 20 21
28 24 22 11 15 21 17 20 25 37 44 51 63 62 56 59 64 63 62 53 55 71 70 64 62 65 56 41 35 31 29 26 21 10 8 15 18 22 23 23 21 21 23 22 24 26 24 23 23
30 23 17 15 20 14 15 21 29 60 59 61 61 54 56 51 50 47 48 53 72 78 76 66 62 69 62 48 39 40 32 26 19 9 12 18 24 26 26 25 26 24 24 26 26 28 29 30 30
26 18 16 19 14 14 15 18 20 27 32 32 44 54 55 52 50 49 49 80 92 91 83 68 66 72 76 60 50 56 33 25 15 10 15 22 27 29 29 28 29 27 28 29 34 35 36 36 34
19 16 15 14 18 17 16 19 21 27 36 38 50 55 56 56 56 58 51 80 89 93 89 79 83 99 97 74 68 54 31 21 14 14 23 28 30 31 33 31 32 31 34 37 38 40 42 42 43
16 16 15 18 14 13 22 31 34 53 39 48 55 59 56 57 63 58 56 61 92 84 95 97 99 100 98 86 70 36 21 20 16 23 30 32 33 33 33 34 36 36 39 39 44 46 49 50 50
16 15 23 21 21 32 44 44 55 55 58 58 62 55 60 56 60 66 58 52 86 87 98 99 100 99 97 95 64 17 22 28 42 29 37 36 37 35 36 39 38 39 41 48 50 54 58 57 60
18 29 25 22 22 34 43 50 51 61 54 60 58 54 63 67 66 70 68 76 78 93 99 100 96 100 98 75 20 22 29 42 26 35 38 39 40 40 38 36 35 41 48 52 54 63 56 54 56
25 31 25 23 25 27 33 49 59 52 60 58 53 48 60 73 71 77 72 77 100 100 100 100 96 98 69 39 46 57 77 42 36 41 41 41 42 40 39 38 39 45 50 53 66 60 62 59 62
31 31 26 27 26 32 46 50 61 64 62 62 62 64 66 76 84 59 71 96 100 94 84 98 100 95 68 71 93 82 59 26 35 39 42 44 44 42 39 38 45 51 57 59 56 57 56 62 64
30 28 29 28 25 26 48 51 53 54 58 68 67 70 74 84 79 50 84 100 98 92 96 98 100 100 98 98 68 43 20 28 38 41 46 47 47 44 44 46 49 56 60 55 56 56 53 58 62
26 28 32 27 25 40 45 41 45 50 51 73 79 76 82 81 47 44 90 97 67 100 100 99 97 64 54 73 46 43 25 21 37 42 45 50 50 50 48 50 56 59 55 58 59 65 61 51 38
26 34 29 25 32 41 42 42 46 44 44 76 72 58 70 60 41 54 58 63 57 68 60 56 64 81 68 56 48 37 28 20 26 34 45 51 50 50 56 60 62 59 62 61 70 72 60 46 39
32 28 26 31 40 43 42 44 49 37 31 70 66 44 53 56 42 26 58 50 72 90 94 63 52 44 42 33 30 26 20 15 21 35 44 50 54 57 60 67 63 64 65 69 80 72 58 45 44
35 28 27 36 40 44 47 44 44 44 41 71 58 46 44 34 33 42 48 38 38 59 78 50 31 20 19 19 22 21 18 16 24 32 36 52 60 64 67 65 70 76 76 84 91 70 50 52 56
37 30 33 35 44 49 48 39 41 46 29 69 69 61 53 51 52 42 37 60 58 50 41 38 37 48 53 59 57 49 49 57 62 50 48 54 60 65 75 79 83 86 89 93 81 54 57 59 63
35 30 32 32 41 49 46 44 41 38 28 41 65 51 59 47 39 35 45 52 60 60 59 61 60 61 64 67 68 69 66 73 65 63 65 65 63 69 81 73 77 91 96 85 58 56 68 69 66
39 32 32 34 42 42 47 41 43 37 40 31 30 37 49 40 35 39 49 54 57 64 66 65 62 59 62 63 66 69 72 75 76 64 60 57 65 74 84 76 73 85 89 67 54 59 61 68 68
40 38 37 36 36 35 33 34 37 38 46 38 24 27 34 41 44 42 40 45 48 50 49 58 54 62 64 67 74 77 85 87 80 76 77 70 78 83 88 63 72 77 71 58 56 57 65 70 60
40 35 36 32 36 33 32 30 33 38 33 35 35 36 28 30 30 36 36 36 37 42 42 42 47 56 68 72 74 75 79 79 71 61 73 75 77 83 77 58 60 66 61 58 58 62 69 58 62
41 36 35 36 32 32 26 28 27 33 36 38 38 37 51 46 49 40 34 33 40 42 40 44 48 54 61 65 66 65 68 72 67 83 90 77 72 69 56 53 60 62 60 63 65 62 62 60 80
38 35 36 41 36 35 33 31 27 28 30 34 34 30 40 48 47 54 53 46 52 62 63 60 58 63 61 59 56 62 70 73 79 91 92 76 61 53 51 51 54 55 59 65 66 69 78 91 91
34 36 40 40 35 37 34 36 29 26 32 31 31 28 30 40 46 47 49 58 61 67 64 66 64 73 70 65 64 68 69 79 80 86 79 73 54 47 47 53 58 65 71 75 78 83 94 100 83
39 38 37 41 37 47 36 40 34 30 27 25 27 29 28 33 38 45 52 61 69 64 63 59 57 59 64 72 72 67 70 74 75 82 74 67 55 50 55 62 68 72 75 82 92 97 98 99 78
38 36 44 49 59 55 39 49 30 26 30 30 31 31 28 30 34 38 46 50 57 64 66 64 60 65 71 74 72 66 73 76 73 75 72 74 62 57 60 66 71 82 79 90 98 99 100 83 80
40 42 43 50 62 46 41 43 28 29 30 28 29 28 33 33 36 38 45 56 62 62 65 63 62 75 78 76 70 67 70 69 70 72 77 77 72 75 78 76 83 98 87 99 96 87 90 68 87
40 40 40 40 55 62 39 34 28 22 33 36 29 29 32 32 37 40 48 58 61 62 57 61 72 81 74 78 68 58 70 64 69 78 84 82 83 86 83 99 81 99 84 86 71 96 95 93 95
42 42 41 43 52 53 44 35 25 22 28 21 25 31 36 39 42 45 45 44 54 53 53 62 57 59 65 63 62 58 58 66 68 66 59 60 74 88 67 86 88 91 89 73 82 97 99 96 97
35 40 43 39 37 54 64 35 26 27 19 22 20 17 14 14 25 34 36 28 17 16 16 27 32 42 42 40 39 43 46 57 71 80 84 74 77 79 86 96 100 100 90 97 99 89 88 96 88
30 34 39 39 40 40 45 36 30 29 28 30 24 26 24 20 17 14 16 23 27 31 36 43 42 50 64 71 70 71 77 86 89 88 76 68 71 87 99 100 99 99 93 99 98 98 97 89 88

GFSSGP_700_rhum_045.txt.gz
RH
24 25 25 23 15 15 16 15 16 21 26 30 44 49 57 56 62 60 60 58 62 66 73 70 61 66 64 52 43 40 38 29 26 20 9 4 8 16 19 23 22 21 20 20 21 21 21 21 21
27 27 24 19 14 20 16 16 22 48 62 48 56 63 64 62 60 64 68 63 60 67 78 72 62 66 69 56 49 44 37 29 25 15 6 7 14 17 22 24 24 24 23 24 24 25 27 29 29
26 27 22 16 15 17 15 20 29 36 48 58 63 62 59 59 55 52 48 48 50 63 78 77 65 69 74 66 56 48 37 30 21 10 8 13 19 23 23 25 26 26 27 27 31 34 35 35 34
27 24 18 20 16 15 15 18 18 21 25 30 36 47 58 56 52 51 51 51 49 70 94 84 81 85 87 84 66 52 36 36 16 9 16 19 22 25 24 27 29 30 32 37 39 38 41 43 43
25 20 17 17 18 18 15 16 20 25 26 32 39 41 60 58 53 52 57 54 77 91 93 91 84 95 100 84 72 51 54 36 12 18 23 24 26 27 28 31 34 34 38 41 41 43 47 51 51
20 17 20 19 15 14 32 50 39 40 40 40 48 58 58 57 57 57 55 66 84 96 96 93 90 98 100 98 74 58 68 19 21 27 28 29 29 30 34 38 39 39 40 45 48 54 55 56 57
19 18 20 20 23 34 42 56 58 50 50 51 52 60 58 53 60 59 61 63 76 98 96 98 98 100 99 83 74 64 22 20 31 30 32 28 32 35 38 40 39 39 47 51 56 62 57 52 54
22 22 20 19 24 26 30 51 49 52 56 60 61 52 54 58 61 65 62 63 60 98 98 98 99 100 94 79 66 48 16 32 36 34 31 29 38 37 39 39 40 48 54 59 64 62 61 61 61
25 28 23 24 26 28 44 48 50 54 57 52 54 50 54 56 66 70 71 67 76 71 92 99 99 100 89 85 51 38 29 41 45 49 37 37 40 41 41 39 41 49 54 55 58 58 56 58 64
27 28 25 28 29 28 49 53 50 51 60 65 64 63 64 67 73 69 60 79 86 99 100 100 100 98 96 89 43 26 44 78 46 42 39 41 43 44 39 43 50 50 52 61 58 57 56 57 58
27 28 30 30 29 31 50 47 47 48 47 61 66 70 74 76 72 73 60 98 99 100 99 98 98 96 97 50 36 64 79 69 44 41 41 43 45 46 46 48 48 52 60 60 61 57 60 58 50
27 33 30 29 27 47 51 46 43 45 42 68 80 78 80 72 65 62 98 99 98 100 99 98 100 100 99 94 99 91 76 31 42 40 44 49 50 51 51 49 51 59 63 65 59 58 66 59 47
28 32 28 28 36 46 46 48 44 44 61 72 73 80 88 77 38 64 65 78 98 97 98 99 97 86 81 91 91 67 25 37 44 43 47 50 54 55 51 53 62 66 65 63 62 68 69 59 47
31 26 27 32 37 44 47 51 56 49 50 51 44 64 53 46 36 53 51 68 62 82 82 83 93 96 86 83 53 40 27 37 47 44 46 50 52 51 60 65 65 68 66 74 76 81 73 54 51
34 27 29 35 38 47 47 51 53 49 50 56 42 47 45 40 46 54 59 67 76 67 57 60 60 53 49 43 41 36 28 23 27 34 44 50 54 58 63 69 68 74 81 82 88 82 61 54 64
34 25 29 33 41 50 47 45 53 39 38 59 53 53 46 34 49 54 45 45 85 85 73 57 46 44 44 40 37 28 24 22 23 42 49 55 57 63 70 77 72 72 83 86 89 76 56 57 61
35 31 32 33 34 47 48 44 50 39 26 49 61 46 39 30 43 50 59 55 46 48 44 35 33 36 31 31 34 40 38 52 66 58 54 59 64 69 74 78 75 74 80 90 85 63 54 54 59
36 31 31 32 37 43 47 43 42 39 33 26 35 42 43 31 40 43 46 54 54 54 51 50 50 56 61 64 65 64 62 66 66 62 63 65 65 68 76 80 77 68 80 82 70 57 54 54 67
38 36 34 41 37 36 34 33 36 40 37 25 30 36 37 30 41 49 53 56 59 63 60 60 62 65 64 66 70 74 76 77 78 81 80 77 74 77 82 91 79 67 69 68 60 57 59 68 78
40 38 36 34 35 33 32 30 29 30 35 35 26 30 31 30 32 37 40 40 43 54 59 54 57 62 69 70 72 73 74 76 74 66 68 80 82 87 81 82 62 57 59 60 58 61 68 77 73
40 37 39 40 35 32 29 25 25 24 29 39 37 35 33 30 31 30 31 34 37 36 37 41 47 54 66 72 71 69 62 67 70 81 86 80 71 68 59 55 56 55 54 58 63 67 72 75 80
43 38 37 40 37 33 31 29 25 25 26 28 34 36 44 38 47 42 38 37 44 52 50 47 52 55 60 68 65 62 64 69 85 90 94 92 82 72 62 57 52 50 54 63 65 69 72 78 83
42 37 38 39 38 38 34 37 29 29 24 22 22 28 31 40 52 51 50 49 52 59 68 68 64 66 73 75 68 70 73 76 80 87 98 97 90 85 70 57 52 54 62 66 72 77 78 80 85
42 41 40 38 41 44 35 37 32 29 27 26 25 25 28 31 38 45 50 57 63 68 67 72 68 76 77 82 82 77 82 86 82 85 83 82 88 85 68 64 58 61 62 71 84 92 84 97 99
43 42 44 47 53 48 43 48 32 28 28 29 29 29 30 30 32 34 44 50 58 62 59 67 72 70 72 72 73 74 74 73 78 85 79 75 77 77 85 77 69 73 85 94 91 97 97 88 81
40 40 40 46 50 42 42 40 26 26 26 27 28 26 26 31 30 31 34 41 54 62 68 72 75 78 82 82 76 71 69 70 77 80 74 75 76 80 91 84 95 98 99 93 87 98 86 88 88
45 45 41 40 53 53 38 34 27 22 33 36 34 28 26 29 31 34 37 38 47 63 63 69 77 88 82 83 80 74 76 65 63 71 76 77 85 93 90 100 95 88 88 99 77 98 83 84 97
46 43 45 44 54 56 43 37 24 24 21 22 21 27 32 33 34 35 36 34 46 61 66 75 73 70 75 72 76 65 65 62 60 63 70 80 95 97 96 86 90 83 91 98 100 99 99 98 94
40 48 44 41 40 46 46 33 28 26 26 28 27 24 18 14 23 28 33 38 31 33 42 47 51 36 36 45 43 42 43 49 51 65 85 97 98 97 97 98 96 94 96 99 91 77 99 98 96
30 35 38 40 42 40 44 38 28 26 31 29 29 24 28 22 18 10 9 11 18 21 22 21 23 32 43 50 59 67 76 79 92 92 97 98 97 98 99 94 82 100 98 98 100 96 97 90 90

GFSSGP_700_rhum_048.txt.gz
RH
20 20 23 24 25 21 18 17 18 31 31 34 30 67 76 63 70 65 63 53 55 58 63 72 79 71 58 53 54 57 54 46 30 23 15 4 11 16 20 21 21 22 21 22 22 22 24 26 26
22 24 25 28 20 16 15 18 22 44 63 44 48 64 74 52 52 71 71 63 62 61 68 73 82 78 65 58 58 62 54 41 28 23 7 7 15 20 22 23 24 24 25 26 28 31 31 30 28
23 26 32 26 19 16 15 21 31 32 37 58 63 62 63 68 62 59 61 55 52 53 74 84 88 88 80 70 61 55 48 36 28 16 6 14 19 23 25 27 26 28 28 34 36 37 38 38 37
26 26 23 21 17 17 19 19 22 36 25 30 57 51 55 60 59 54 51 48 48 56 94 100 96 98 93 82 74 61 50 34 24 11 10 18 22 26 28 29 29 32 37 38 38 40 44 47 46
25 26 24 19 18 21 19 20 16 36 36 24 31 57 35 59 58 54 57 64 50 90 95 100 99 99 100 100 87 66 49 30 35 13 15 23 27 28 31 31 34 38 38 40 43 50 50 47 47
32 23 21 17 18 19 27 50 42 36 31 30 39 39 44 56 58 58 56 55 65 96 98 99 98 99 100 100 91 68 39 42 26 12 20 29 32 32 33 35 37 37 42 46 53 58 54 52 51
30 26 21 20 26 27 42 51 52 52 46 40 47 79 57 57 52 54 57 58 74 95 98 98 97 99 98 97 71 54 50 37 24 16 29 32 35 34 35 38 39 44 48 54 65 62 57 58 57
29 26 21 22 25 27 41 49 50 57 59 58 60 79 56 57 54 51 64 63 76 85 98 96 92 92 100 99 73 80 73 42 27 30 34 38 39 37 41 42 43 48 54 63 59 55 57 56 64
17 28 20 24 26 30 44 52 50 54 58 62 61 57 55 56 54 58 67 65 66 88 96 100 92 96 100 98 93 67 33 38 38 44 42 46 39 39 42 42 47 51 59 62 60 58 57 59 65
33 27 23 28 32 31 42 52 58 45 52 67 66 66 70 59 65 76 73 73 76 79 87 99 99 100 97 99 95 54 46 41 50 77 62 46 42 42 42 44 47 49 63 64 61 61 59 64 59
34 30 28 30 31 28 48 48 46 48 49 62 65 70 73 74 75 71 73 67 70 93 93 93 98 100 100 100 92 54 52 83 72 63 47 48 46 46 44 45 48 54 61 62 64 60 67 68 55
28 32 32 29 28 36 53 48 48 47 52 67 74 72 81 86 82 68 76 99 98 100 99 100 99 98 100 99 97 84 84 84 74 51 48 50 50 50 49 52 50 54 63 65 65 62 67 63 55
28 32 33 29 35 43 49 52 55 52 64 72 76 80 80 77 50 81 61 95 90 98 99 100 100 100 100 100 99 96 95 87 50 44 46 52 53 52 55 52 53 62 67 70 70 69 66 65 56
34 29 28 34 38 44 46 51 56 50 65 54 61 69 55 43 45 37 58 75 99 100 100 95 100 100 98 99 90 81 60 45 45 43 48 51 54 56 52 54 60 70 73 72 77 72 77 64 50
28 35 39 31 36 42 43 56 65 51 62 45 39 40 38 42 35 42 41 46 64 76 82 88 87 89 90 97 97 67 29 45 46 46 50 53 56 54 51 64 70 72 75 73 74 73 71 57 49
32 30 30 34 38 41 43 45 50 35 63 52 48 52 36 50 44 37 40 50 52 56 82 87 83 79 72 74 52 38 31 44 50 50 50 51 52 56 62 72 76 83 73 69 65 64 64 55 49
30 24 26 31 32 51 45 42 44 38 60 59 54 54 30 48 54 49 44 48 68 81 57 51 49 48 48 46 44 38 32 29 34 38 46 54 62 63 71 73 77 77 70 65 57 63 58 52 51
22 26 26 28 39 41 51 43 38 48 30 62 66 52 34 41 50 57 53 47 42 42 50 47 46 42 38 36 34 31 27 28 40 55 56 55 60 70 74 74 79 70 57 54 55 63 55 54 58
34 31 27 34 42 48 42 37 40 34 42 25 49 47 34 35 45 50 54 55 56 52 46 47 51 57 66 53 53 55 53 63 67 65 64 64 68 70 73 78 70 60 54 55 57 57 55 57 63
44 34 31 38 35 34 31 30 33 30 34 32 29 35 36 35 42 45 44 46 50 58 62 62 62 63 65 65 67 71 77 81 82 80 79 77 78 79 81 67 50 54 61 56 54 56 60 64 70
45 35 35 34 39 32 32 28 29 26 32 34 24 31 34 31 36 39 39 38 42 43 50 59 67 68 70 73 75 76 77 75 79 79 82 77 77 93 66 53 47 54 52 55 56 61 67 71 76
40 41 41 40 35 28 30 24 25 27 26 30 33 32 28 29 31 32 33 35 36 40 47 55 59 62 69 74 75 76 78 79 83 88 95 94 90 81 62 63 54 58 58 55 62 70 81 89 84
38 41 43 42 35 34 32 29 26 27 22 22 26 33 37 41 38 44 34 32 35 42 46 49 52 54 56 61 70 78 78 77 78 82 88 87 95 93 83 74 62 68 64 63 70 83 84 86 97
46 44 45 43 39 37 28 29 23 24 26 26 33 29 31 37 38 45 49 48 45 47 58 65 61 60 63 67 78 78 77 82 84 87 87 88 89 96 96 92 90 83 84 79 82 91 94 91 96
47 42 37 41 41 38 41 35 26 29 31 27 26 29 28 28 34 36 46 51 56 60 62 64 69 74 77 79 84 88 77 83 84 87 86 87 89 86 84 86 92 93 96 95 95 97 99 96 84
43 39 38 45 41 32 47 32 27 28 27 25 24 27 28 28 29 34 36 40 50 57 63 69 73 78 82 84 85 89 90 80 86 89 81 81 94 93 81 86 93 96 98 100 91 91 86 99 91
48 45 41 46 42 45 32 32 28 24 23 26 31 31 24 26 28 31 35 36 42 55 62 68 72 77 82 87 91 90 89 87 80 84 81 77 97 91 85 94 95 99 99 88 99 93 99 99 98
47 46 45 43 46 42 30 30 22 27 28 21 24 28 33 30 30 31 31 33 34 39 51 68 72 79 85 86 86 84 83 85 80 75 66 66 70 74 83 90 98 94 92 99 85 95 98 98 96
50 48 45 43 42 37 36 28 30 28 30 30 31 28 23 15 25 33 32 34 36 37 47 64 69 76 70 69 77 52 44 40 42 46 56 57 63 74 99 99 98 99 95 97 98 96 97 98 98
39 38 43 38 35 41 39 33 30 31 29 31 31 28 27 25 20 12 11 33 37 37 42 51 58 65 62 48 32 42 49 60 70 76 80 81 88 99 98 100 100 99 89 94 96 100 97 98 97